Time,TemperatureF,DewpointF,PressureIn,WindDirection,WindDirectionDegrees,WindSpeedMPH,WindSpeedGustMPH,Humidity,HourlyPrecipIn,Conditions,Clouds,dailyrainin,SoftwareType,DateUTC
2013-01-21 00:00:00,17.1,10.2,30.16,North,0,0.2,1.1,74,0.00,,,0.00,WUHU216HW,2013-01-21 07:00:00,
2013-01-21 00:01:00,17.1,10.2,30.16,NNW,338,0.0,1.1,74,0.00,,,0.00,WUHU216HW,2013-01-21 07:01:00,
2013-01-21 00:02:00,17.1,10.2,30.16,NNE,23,0.4,1.1,74,0.00,,,0.00,WUHU216HW,2013-01-21 07:02:00,
2013-01-21 00:05:00,17.1,10.2,30.16,NE,45,0.4,1.1,74,0.00,,,0.00,WUHU216HW,2013-01-21 07:05:00,
2013-01-21 00:07:00,17.1,10.2,30.16,NE,45,0.7,1.1,74,0.00,,,0.00,WUHU216HW,2013-01-21 07:07:00,
2013-01-21 00:10:00,16.9,10.0,30.15,NE,45,0.4,1.1,74,0.00,,,0.00,WUHU216HW,2013-01-21 07:10:00,
2013-01-21 00:11:00,16.9,10.0,30.15,NE,45,0.4,1.1,74,0.00,,,0.00,WUHU216HW,2013-01-21 07:11:00,
2013-01-21 00:12:00,16.9,10.0,30.14,NE,45,0.0,1.3,74,0.00,,,0.00,WUHU216HW,2013-01-21 07:12:00,
2013-01-21 00:16:00,16.9,10.0,30.13,SSE,158,0.4,1.3,74,0.00,,,0.00,WUHU216HW,2013-01-21 07:16:00,
2013-01-21 00:17:00,16.9,10.0,30.13,SSE,158,0.2,1.3,74,0.00,,,0.00,WUHU216HW,2013-01-21 07:17:00,
2013-01-21 00:18:00,16.9,10.0,30.13,NE,45,0.7,1.3,74,0.00,,,0.00,WUHU216HW,2013-01-21 07:18:00,
2013-01-21 00:21:00,16.9,10.0,30.14,NNE,23,1.8,1.8,74,0.00,,,0.00,WUHU216HW,2013-01-21 07:21:00,
2013-01-21 00:22:00,16.7,9.8,30.15,NNE,23,2.0,2.0,74,0.00,,,0.00,WUHU216HW,2013-01-21 07:22:00,
2013-01-21 00:23:00,16.7,9.8,30.15,NNE,23,2.0,2.0,74,0.00,,,0.00,WUHU216HW,2013-01-21 07:23:00,
2013-01-21 00:26:00,16.6,10.0,30.15,NNE,23,3.1,3.4,75,0.00,,,0.00,WUHU216HW,2013-01-21 07:26:00,
2013-01-21 00:27:00,16.6,10.0,30.15,ENE,68,1.8,3.4,75,0.00,,,0.00,WUHU216HW,2013-01-21 07:27:00,
2013-01-21 00:29:00,16.4,10.1,30.15,NE,45,4.5,4.5,76,0.00,,,0.00,WUHU216HW,2013-01-21 07:29:00,
2013-01-21 00:31:00,16.2,9.9,30.15,ENE,68,2.5,4.5,76,0.00,,,0.00,WUHU216HW,2013-01-21 07:31:00,
2013-01-21 00:32:00,16.2,9.9,30.16,NE,45,4.7,4.7,76,0.00,,,0.00,WUHU216HW,2013-01-21 07:32:00,
2013-01-21 00:35:00,16.0,9.7,30.16,ENE,68,6.3,6.3,76,0.00,,,0.00,WUHU216HW,2013-01-21 07:35:00,
2013-01-21 00:36:00,15.8,9.5,30.16,NNW,338,7.4,8.3,76,0.00,,,0.00,WUHU216HW,2013-01-21 07:36:00,
2013-01-21 00:37:00,15.7,9.4,30.16,East,90,1.8,8.3,76,0.00,,,0.00,WUHU216HW,2013-01-21 07:37:00,
2013-01-21 00:38:00,15.7,9.4,30.16,East,90,1.8,8.3,76,0.00,,,0.00,WUHU216HW,2013-01-21 07:38:00,
2013-01-21 00:40:00,15.3,9.1,30.16,NNE,23,5.6,8.3,76,0.00,,,0.00,WUHU216HW,2013-01-21 07:40:00,
2013-01-21 00:42:00,14.9,8.7,30.16,ENE,68,4.5,8.3,76,0.00,,,0.00,WUHU216HW,2013-01-21 07:42:00,
2013-01-21 00:43:00,14.9,8.7,30.16,ENE,68,4.5,8.3,76,0.00,,,0.00,WUHU216HW,2013-01-21 07:43:00,
2013-01-21 00:45:00,14.8,8.6,30.16,ENE,68,6.5,8.3,76,0.00,,,0.00,WUHU216HW,2013-01-21 07:45:00,
2013-01-21 00:47:00,14.6,8.4,30.16,ESE,113,0.7,6.5,76,0.00,,,0.00,WUHU216HW,2013-01-21 07:47:00,
2013-01-21 00:48:00,14.6,8.4,30.16,ESE,113,0.7,6.5,76,0.00,,,0.00,WUHU216HW,2013-01-21 07:48:00,
2013-01-21 00:50:00,14.8,8.8,30.16,ESE,113,3.4,6.5,77,0.00,,,0.00,WUHU216HW,2013-01-21 07:50:00,
2013-01-21 00:52:00,14.8,8.8,30.16,NNE,23,0.2,6.5,77,0.00,,,0.00,WUHU216HW,2013-01-21 07:52:00,
2013-01-21 00:53:00,14.8,8.8,30.16,NNE,23,0.2,6.5,77,0.00,,,0.00,WUHU216HW,2013-01-21 07:53:00,
2013-01-21 00:55:00,14.8,8.6,30.16,ESE,113,0.4,4.7,76,0.00,,,0.00,WUHU216HW,2013-01-21 07:55:00,
2013-01-21 00:57:00,14.8,8.6,30.15,ENE,68,0.7,4.7,76,0.00,,,0.00,WUHU216HW,2013-01-21 07:57:00,
2013-01-21 00:58:00,14.8,8.6,30.15,ENE,68,0.7,4.7,76,0.00,,,0.00,WUHU216HW,2013-01-21 07:58:00,
2013-01-21 01:00:00,14.8,8.6,30.15,NE,45,0.9,4.7,76,0.00,,,0.00,WUHU216HW,2013-01-21 08:00:00,
2013-01-21 01:02:00,14.6,8.4,30.15,East,90,0.7,3.4,76,0.00,,,0.00,WUHU216HW,2013-01-21 08:02:00,
2013-01-21 01:03:00,14.6,8.4,30.15,South,180,1.8,3.4,76,0.00,,,0.00,WUHU216HW,2013-01-21 08:03:00,
2013-01-21 01:04:00,14.6,8.4,30.15,South,180,1.8,3.4,76,0.00,,,0.00,WUHU216HW,2013-01-21 08:04:00,
2013-01-21 01:06:00,14.6,8.4,30.15,ENE,68,0.0,3.4,76,0.00,,,0.00,WUHU216HW,2013-01-21 08:06:00,
2013-01-21 01:07:00,14.4,8.2,30.14,East,90,0.0,3.4,76,0.00,,,0.00,WUHU216HW,2013-01-21 08:07:00,
2013-01-21 01:08:00,14.6,8.4,30.14,North,0,0.2,3.4,76,0.00,,,0.00,WUHU216HW,2013-01-21 08:08:00,
2013-01-21 01:09:00,14.6,8.4,30.14,SSE,158,0.4,1.8,76,0.00,,,0.00,WUHU216HW,2013-01-21 08:09:00,
2013-01-21 01:10:00,14.6,8.4,30.14,NE,45,0.4,1.8,76,0.00,,,0.00,WUHU216HW,2013-01-21 08:10:00,
2013-01-21 01:13:00,14.6,8.4,30.14,SE,135,0.4,0.4,76,0.00,,,0.00,WUHU216HW,2013-01-21 08:13:00,
2013-01-21 01:14:00,14.6,8.4,30.14,SE,135,0.0,0.4,76,0.00,,,0.00,WUHU216HW,2013-01-21 08:14:00,
2013-01-21 01:16:00,14.6,8.4,30.14,NE,45,0.2,0.4,76,0.00,,,0.00,WUHU216HW,2013-01-21 08:16:00,
2013-01-21 01:18:00,14.8,8.6,30.14,NNE,23,1.1,1.1,76,0.00,,,0.00,WUHU216HW,2013-01-21 08:18:00,
2013-01-21 01:19:00,14.8,8.6,30.14,ENE,68,0.7,1.1,76,0.00,,,0.00,WUHU216HW,2013-01-21 08:19:00,
2013-01-21 01:21:00,14.8,8.6,30.13,NE,45,0.2,1.1,76,0.00,,,0.00,WUHU216HW,2013-01-21 08:21:00,
2013-01-21 01:23:00,14.8,8.6,30.14,NNE,23,1.1,1.1,76,0.00,,,0.00,WUHU216HW,2013-01-21 08:23:00,
2013-01-21 01:24:00,14.8,8.6,30.13,ENE,68,0.4,1.1,76,0.00,,,0.00,WUHU216HW,2013-01-21 08:24:00,
2013-01-21 01:26:00,14.8,8.6,30.13,NNE,23,0.2,1.1,76,0.00,,,0.00,WUHU216HW,2013-01-21 08:26:00,
2013-01-21 01:28:00,14.8,8.6,30.13,ENE,68,1.1,1.1,76,0.00,,,0.00,WUHU216HW,2013-01-21 08:28:00,
2013-01-21 01:29:00,14.8,8.6,30.13,NNE,23,0.7,1.1,76,0.00,,,0.00,WUHU216HW,2013-01-21 08:29:00,
2013-01-21 01:32:00,14.8,8.6,30.13,NNE,23,0.4,1.1,76,0.00,,,0.00,WUHU216HW,2013-01-21 08:32:00,
2013-01-21 01:34:00,14.8,8.6,30.13,East,90,0.2,1.1,76,0.00,,,0.00,WUHU216HW,2013-01-21 08:34:00,
2013-01-21 01:35:00,14.8,8.6,30.13,NE,45,1.3,1.3,76,0.00,,,0.00,WUHU216HW,2013-01-21 08:35:00,
2013-01-21 01:37:00,14.6,8.4,30.13,NE,45,0.4,2.0,76,0.00,,,0.00,WUHU216HW,2013-01-21 08:37:00,
2013-01-21 01:39:00,14.6,8.4,30.13,ENE,68,0.4,2.0,76,0.00,,,0.00,WUHU216HW,2013-01-21 08:39:00,
2013-01-21 01:40:00,14.6,8.4,30.12,NNE,23,0.4,2.0,76,0.00,,,0.00,WUHU216HW,2013-01-21 08:40:00,
2013-01-21 01:42:00,14.6,8.4,30.12,NNE,23,0.7,2.0,76,0.00,,,0.00,WUHU216HW,2013-01-21 08:42:00,
2013-01-21 01:44:00,14.6,8.4,30.12,NNE,23,0.2,2.0,76,0.00,,,0.00,WUHU216HW,2013-01-21 08:44:00,
2013-01-21 01:45:00,14.6,8.4,30.12,NNE,23,0.2,2.0,76,0.00,,,0.00,WUHU216HW,2013-01-21 08:45:00,
2013-01-21 01:47:00,14.6,8.4,30.12,North,0,0.0,0.7,76,0.00,,,0.00,WUHU216HW,2013-01-21 08:47:00,
2013-01-21 01:49:00,14.6,8.4,30.12,North,0,0.2,0.7,76,0.00,,,0.00,WUHU216HW,2013-01-21 08:49:00,
2013-01-21 01:50:00,14.8,8.6,30.12,North,0,0.0,0.7,76,0.00,,,0.00,WUHU216HW,2013-01-21 08:50:00,
2013-01-21 01:52:00,14.8,8.6,30.12,WNW,293,0.4,0.4,76,0.00,,,0.00,WUHU216HW,2013-01-21 08:52:00,
2013-01-21 01:54:00,14.8,8.6,30.12,West,270,0.0,0.4,76,0.00,,,0.00,WUHU216HW,2013-01-21 08:54:00,
2013-01-21 01:55:00,14.8,8.6,30.12,WNW,293,0.4,0.4,76,0.00,,,0.00,WUHU216HW,2013-01-21 08:55:00,
2013-01-21 01:58:00,14.8,8.6,30.11,WNW,293,0.0,0.4,76,0.00,,,0.00,WUHU216HW,2013-01-21 08:58:00,
2013-01-21 01:59:00,14.8,8.6,30.12,WSW,248,0.7,0.7,76,0.00,,,0.00,WUHU216HW,2013-01-21 08:59:00,
2013-01-21 02:00:00,14.8,8.6,30.12,West,270,0.2,0.7,76,0.00,,,0.00,WUHU216HW,2013-01-21 09:00:00,
2013-01-21 02:03:00,14.9,8.7,30.12,NNW,338,0.0,0.7,76,0.00,,,0.00,WUHU216HW,2013-01-21 09:03:00,
2013-01-21 02:04:00,14.9,8.7,30.12,NNW,338,0.4,0.7,76,0.00,,,0.00,WUHU216HW,2013-01-21 09:04:00,
2013-01-21 02:05:00,15.1,8.9,30.12,WSW,248,0.4,0.7,76,0.00,,,0.00,WUHU216HW,2013-01-21 09:05:00,
2013-01-21 02:08:00,15.1,8.9,30.11,WNW,293,0.4,0.7,76,0.00,,,0.00,WUHU216HW,2013-01-21 09:08:00,
2013-01-21 02:09:00,15.1,8.9,30.11,West,270,0.4,0.7,76,0.00,,,0.00,WUHU216HW,2013-01-21 09:09:00,
2013-01-21 02:10:00,15.1,8.9,30.11,West,270,0.4,0.7,76,0.00,,,0.00,WUHU216HW,2013-01-21 09:10:00,
2013-01-21 02:13:00,15.3,9.1,30.11,WSW,248,0.4,0.9,76,0.00,,,0.00,WUHU216HW,2013-01-21 09:13:00,
2013-01-21 02:14:00,15.3,9.1,30.11,WSW,248,0.2,0.9,76,0.00,,,0.00,WUHU216HW,2013-01-21 09:14:00,
2013-01-21 02:15:00,15.3,9.1,30.11,SW,225,0.4,0.9,76,0.00,,,0.00,WUHU216HW,2013-01-21 09:15:00,
2013-01-21 02:16:00,15.3,9.1,30.11,SW,225,1.6,1.6,76,0.00,,,0.00,WUHU216HW,2013-01-21 09:16:00,
2013-01-21 02:18:00,15.3,9.1,30.10,WSW,248,2.5,2.5,76,0.00,,,0.00,WUHU216HW,2013-01-21 09:18:00,
2013-01-21 02:19:00,15.1,8.9,30.10,SSW,203,1.3,2.5,76,0.00,,,0.00,WUHU216HW,2013-01-21 09:19:00,
2013-01-21 02:20:00,15.1,8.9,30.10,WNW,293,0.4,2.5,76,0.00,,,0.00,WUHU216HW,2013-01-21 09:20:00,
2013-01-21 02:21:00,15.1,8.9,30.10,SW,225,0.4,2.5,76,0.00,,,0.00,WUHU216HW,2013-01-21 09:21:00,
2013-01-21 02:23:00,15.1,8.9,30.10,SW,225,0.0,2.5,76,0.00,,,0.00,WUHU216HW,2013-01-21 09:23:00,
2013-01-21 02:25:00,15.1,8.9,30.10,SW,225,0.0,2.5,76,0.00,,,0.00,WUHU216HW,2013-01-21 09:25:00,
2013-01-21 02:26:00,15.1,8.6,30.11,North,0,0.2,2.5,75,0.00,,,0.00,WUHU216HW,2013-01-21 09:26:00,
2013-01-21 02:29:00,15.1,8.9,30.11,ENE,68,0.4,1.3,76,0.00,,,0.00,WUHU216HW,2013-01-21 09:29:00,
2013-01-21 02:30:00,15.1,8.9,30.12,ENE,68,0.4,0.4,76,0.00,,,0.00,WUHU216HW,2013-01-21 09:30:00,
2013-01-21 02:31:00,15.1,8.9,30.12,East,90,0.0,0.4,76,0.00,,,0.00,WUHU216HW,2013-01-21 09:31:00,
2013-01-21 02:34:00,14.9,8.7,30.12,East,90,0.0,0.4,76,0.00,,,0.00,WUHU216HW,2013-01-21 09:34:00,
2013-01-21 02:35:00,14.9,8.7,30.11,NE,45,1.6,1.6,76,0.00,,,0.00,WUHU216HW,2013-01-21 09:35:00,
2013-01-21 02:36:00,14.9,8.7,30.12,NE,45,1.8,1.8,76,0.00,,,0.00,WUHU216HW,2013-01-21 09:36:00,
2013-01-21 02:39:00,14.8,8.6,30.13,ENE,68,2.0,4.0,76,0.00,,,0.00,WUHU216HW,2013-01-21 09:39:00,
2013-01-21 02:40:00,14.8,8.6,30.13,East,90,3.6,4.0,76,0.00,,,0.00,WUHU216HW,2013-01-21 09:40:00,
2013-01-21 02:41:00,14.8,8.6,30.13,NE,45,2.2,4.0,76,0.00,,,0.00,WUHU216HW,2013-01-21 09:41:00,
2013-01-21 02:44:00,14.6,8.4,30.13,NNE,23,3.1,4.0,76,0.00,,,0.00,WUHU216HW,2013-01-21 09:44:00,
2013-01-21 02:45:00,14.6,8.6,30.14,East,90,4.3,4.3,77,0.00,,,0.00,WUHU216HW,2013-01-21 09:45:00,
2013-01-21 02:46:00,14.6,8.6,30.14,NE,45,4.0,4.3,77,0.00,,,0.00,WUHU216HW,2013-01-21 09:46:00,
2013-01-21 02:49:00,14.4,8.5,30.13,NNE,23,3.8,5.4,77,0.00,,,0.00,WUHU216HW,2013-01-21 09:49:00,
2013-01-21 02:50:00,14.4,8.8,30.14,NE,45,4.7,5.4,78,0.00,,,0.00,WUHU216HW,2013-01-21 09:50:00,
2013-01-21 02:51:00,14.4,8.8,30.14,NE,45,4.7,5.4,78,0.00,,,0.00,WUHU216HW,2013-01-21 09:51:00,
2013-01-21 02:52:00,14.2,8.7,30.14,ENE,68,3.6,5.4,78,0.00,,,0.00,WUHU216HW,2013-01-21 09:52:00,
2013-01-21 02:54:00,14.0,8.5,30.13,ENE,68,1.8,5.4,78,0.00,,,0.00,WUHU216HW,2013-01-21 09:54:00,
2013-01-21 02:55:00,14.0,8.5,30.13,NNE,23,4.7,5.4,78,0.00,,,0.00,WUHU216HW,2013-01-21 09:55:00,
2013-01-21 02:56:00,14.0,8.5,30.13,NNE,23,4.7,5.4,78,0.00,,,0.00,WUHU216HW,2013-01-21 09:56:00,
2013-01-21 02:57:00,14.0,8.5,30.13,East,90,2.5,5.4,78,0.00,,,0.00,WUHU216HW,2013-01-21 09:57:00,
2013-01-21 02:59:00,14.0,8.5,30.13,ESE,113,2.7,4.7,78,0.00,,,0.00,WUHU216HW,2013-01-21 09:59:00,
2013-01-21 03:01:00,14.0,8.5,30.13,SE,135,1.3,4.7,78,0.00,,,0.00,WUHU216HW,2013-01-21 10:01:00,
2013-01-21 03:02:00,14.0,8.5,30.12,SE,135,0.9,4.7,78,0.00,,,0.00,WUHU216HW,2013-01-21 10:02:00,
2013-01-21 03:05:00,14.0,8.1,30.13,SE,135,0.9,4.7,77,0.00,,,0.00,WUHU216HW,2013-01-21 10:05:00,
2013-01-21 03:06:00,14.0,8.5,30.13,ESE,113,1.3,2.7,78,0.00,,,0.00,WUHU216HW,2013-01-21 10:06:00,
2013-01-21 03:07:00,14.0,8.5,30.13,ENE,68,1.8,2.7,78,0.00,,,0.00,WUHU216HW,2013-01-21 10:07:00,
2013-01-21 03:10:00,14.0,8.1,30.13,SSW,203,0.0,1.8,77,0.00,,,0.00,WUHU216HW,2013-01-21 10:10:00,
2013-01-21 03:11:00,14.0,8.1,30.13,SE,135,0.4,1.8,77,0.00,,,0.00,WUHU216HW,2013-01-21 10:11:00,
2013-01-21 03:12:00,14.0,8.1,30.13,East,90,0.2,1.8,77,0.00,,,0.00,WUHU216HW,2013-01-21 10:12:00,
2013-01-21 03:15:00,14.0,8.1,30.13,East,90,1.1,1.8,77,0.00,,,0.00,WUHU216HW,2013-01-21 10:15:00,
2013-01-21 03:16:00,14.0,8.1,30.13,SE,135,0.0,1.8,77,0.00,,,0.00,WUHU216HW,2013-01-21 10:16:00,
2013-01-21 03:17:00,14.0,8.1,30.13,SSE,158,0.0,1.1,77,0.00,,,0.00,WUHU216HW,2013-01-21 10:17:00,
2013-01-21 03:20:00,14.0,8.1,30.13,ESE,113,0.7,1.1,77,0.00,,,0.00,WUHU216HW,2013-01-21 10:20:00,
2013-01-21 03:21:00,14.0,8.1,30.13,East,90,0.4,1.1,77,0.00,,,0.00,WUHU216HW,2013-01-21 10:21:00,
2013-01-21 03:22:00,14.0,8.1,30.13,NE,45,0.7,1.1,77,0.00,,,0.00,WUHU216HW,2013-01-21 10:22:00,
2013-01-21 03:23:00,14.0,8.1,30.13,NE,45,0.2,1.1,77,0.00,,,0.00,WUHU216HW,2013-01-21 10:23:00,
2013-01-21 03:25:00,14.0,8.1,30.13,East,90,0.9,1.1,77,0.00,,,0.00,WUHU216HW,2013-01-21 10:25:00,
2013-01-21 03:27:00,14.0,8.1,30.13,NE,45,1.8,1.8,77,0.00,,,0.00,WUHU216HW,2013-01-21 10:27:00,
2013-01-21 03:28:00,14.0,8.1,30.14,NE,45,1.1,1.8,77,0.00,,,0.00,WUHU216HW,2013-01-21 10:28:00,
2013-01-21 03:30:00,14.0,8.1,30.14,ENE,68,1.6,1.8,77,0.00,,,0.00,WUHU216HW,2013-01-21 10:30:00,
2013-01-21 03:32:00,14.0,8.1,30.14,NNE,23,1.1,1.8,77,0.00,,,0.00,WUHU216HW,2013-01-21 10:32:00,
2013-01-21 03:33:00,14.0,8.1,30.13,NNE,23,0.7,1.8,77,0.00,,,0.00,WUHU216HW,2013-01-21 10:33:00,
2013-01-21 03:35:00,14.0,8.1,30.13,NE,45,2.5,2.5,77,0.00,,,0.00,WUHU216HW,2013-01-21 10:35:00,
2013-01-21 03:37:00,13.9,7.9,30.13,NE,45,2.0,2.5,77,0.00,,,0.00,WUHU216HW,2013-01-21 10:37:00,
2013-01-21 03:38:00,13.9,7.9,30.13,NE,45,2.0,2.5,77,0.00,,,0.00,WUHU216HW,2013-01-21 10:38:00,
2013-01-21 03:40:00,13.9,7.9,30.12,NE,45,0.2,2.5,77,0.00,,,0.00,WUHU216HW,2013-01-21 10:40:00,
2013-01-21 03:43:00,13.9,7.9,30.12,NE,45,0.0,2.5,77,0.00,,,0.00,WUHU216HW,2013-01-21 10:43:00,
2013-01-21 03:45:00,13.9,7.9,30.12,ENE,68,0.4,2.0,77,0.00,,,0.00,WUHU216HW,2013-01-21 10:45:00,
2013-01-21 03:48:00,13.9,7.9,30.12,East,90,0.0,0.4,77,0.00,,,0.00,WUHU216HW,2013-01-21 10:48:00,
2013-01-21 03:51:00,13.9,7.9,30.12,East,90,0.0,0.4,77,0.00,,,0.00,WUHU216HW,2013-01-21 10:51:00,
2013-01-21 03:53:00,14.0,8.1,30.12,East,90,0.0,0.4,77,0.00,,,0.00,WUHU216HW,2013-01-21 10:53:00,
2013-01-21 03:54:00,14.0,8.1,30.12,East,90,0.0,0.4,77,0.00,,,0.00,WUHU216HW,2013-01-21 10:54:00,
2013-01-21 03:56:00,14.0,8.1,30.11,West,270,0.7,0.7,77,0.00,,,0.00,WUHU216HW,2013-01-21 10:56:00,
2013-01-21 03:58:00,14.0,8.1,30.11,WSW,248,0.4,1.1,77,0.00,,,0.00,WUHU216HW,2013-01-21 10:58:00,
2013-01-21 03:59:00,14.0,8.1,30.11,West,270,0.0,1.1,77,0.00,,,0.00,WUHU216HW,2013-01-21 10:59:00,
2013-01-21 04:01:00,14.0,8.1,30.11,West,270,0.4,1.1,77,0.00,,,0.00,WUHU216HW,2013-01-21 11:01:00,
2013-01-21 04:03:00,14.0,8.1,30.11,WSW,248,0.4,1.1,77,0.00,,,0.00,WUHU216HW,2013-01-21 11:03:00,
2013-01-21 04:04:00,14.0,8.1,30.11,West,270,0.0,1.1,77,0.00,,,0.00,WUHU216HW,2013-01-21 11:04:00,
2013-01-21 04:06:00,14.0,8.1,30.11,West,270,0.0,0.4,77,0.00,,,0.00,WUHU216HW,2013-01-21 11:06:00,
2013-01-21 04:08:00,14.0,8.1,30.11,WSW,248,0.9,0.9,77,0.00,,,0.00,WUHU216HW,2013-01-21 11:08:00,
2013-01-21 04:09:00,14.0,8.1,30.11,WSW,248,0.9,0.9,77,0.00,,,0.00,WUHU216HW,2013-01-21 11:09:00,
2013-01-21 04:12:00,14.0,8.1,30.11,WNW,293,1.8,1.8,77,0.00,,,0.00,WUHU216HW,2013-01-21 11:12:00,
2013-01-21 04:13:00,14.0,8.1,30.11,WNW,293,0.9,1.8,77,0.00,,,0.00,WUHU216HW,2013-01-21 11:13:00,
2013-01-21 04:14:00,14.0,8.1,30.11,West,270,0.4,1.8,77,0.00,,,0.00,WUHU216HW,2013-01-21 11:14:00,
2013-01-21 04:17:00,14.0,8.1,30.10,WNW,293,0.2,1.8,77,0.00,,,0.00,WUHU216HW,2013-01-21 11:17:00,
2013-01-21 04:19:00,14.0,8.1,30.10,WNW,293,0.7,1.8,77,0.00,,,0.00,WUHU216HW,2013-01-21 11:19:00,
2013-01-21 04:23:00,14.0,8.1,30.10,West,270,1.1,1.1,77,0.00,,,0.00,WUHU216HW,2013-01-21 11:23:00,
2013-01-21 04:24:00,14.0,8.1,30.10,NW,315,1.1,1.1,77,0.00,,,0.00,WUHU216HW,2013-01-21 11:24:00,
2013-01-21 04:28:00,14.0,8.1,30.10,WSW,248,1.8,2.0,77,0.00,,,0.00,WUHU216HW,2013-01-21 11:28:00,
2013-01-21 04:29:00,14.0,8.1,30.10,West,270,1.8,2.0,77,0.00,,,0.00,WUHU216HW,2013-01-21 11:29:00,
2013-01-21 04:33:00,14.0,8.1,30.09,WSW,248,0.4,2.0,77,0.00,,,0.00,WUHU216HW,2013-01-21 11:33:00,
2013-01-21 04:34:00,14.0,8.1,30.09,WSW,248,0.4,2.0,77,0.00,,,0.00,WUHU216HW,2013-01-21 11:34:00,
2013-01-21 04:38:00,14.2,8.3,30.10,NNW,338,0.2,1.8,77,0.00,,,0.00,WUHU216HW,2013-01-21 11:38:00,
2013-01-21 04:39:00,14.2,8.3,30.10,North,0,0.2,1.8,77,0.00,,,0.00,WUHU216HW,2013-01-21 11:39:00,
2013-01-21 04:43:00,14.2,8.3,30.10,NNE,23,0.2,1.8,77,0.00,,,0.00,WUHU216HW,2013-01-21 11:43:00,
2013-01-21 04:44:00,14.2,8.3,30.10,NNE,23,0.2,1.8,77,0.00,,,0.00,WUHU216HW,2013-01-21 11:44:00,
2013-01-21 04:48:00,14.4,8.5,30.11,ENE,68,0.0,0.4,77,0.00,,,0.00,WUHU216HW,2013-01-21 11:48:00,
2013-01-21 04:49:00,14.4,8.5,30.11,ENE,68,0.0,0.4,77,0.00,,,0.00,WUHU216HW,2013-01-21 11:49:00,
2013-01-21 04:53:00,14.2,8.3,30.11,ENE,68,0.0,0.4,77,0.00,,,0.00,WUHU216HW,2013-01-21 11:53:00,
2013-01-21 04:54:00,14.2,8.3,30.11,ENE,68,0.0,0.4,77,0.00,,,0.00,WUHU216HW,2013-01-21 11:54:00,
2013-01-21 04:55:00,14.4,8.5,30.11,NE,45,0.4,0.4,77,0.00,,,0.00,WUHU216HW,2013-01-21 11:55:00,
2013-01-21 04:58:00,14.4,8.5,30.10,East,90,0.0,0.4,77,0.00,,,0.00,WUHU216HW,2013-01-21 11:58:00,
2013-01-21 04:59:00,14.4,8.5,30.10,East,90,0.0,0.4,77,0.00,,,0.00,WUHU216HW,2013-01-21 11:59:00,
2013-01-21 05:00:00,14.4,8.5,30.10,NNW,338,0.0,0.4,77,0.00,,,0.00,WUHU216HW,2013-01-21 12:00:00,
2013-01-21 05:03:00,14.4,8.5,30.10,NE,45,1.1,1.1,77,0.00,,,0.00,WUHU216HW,2013-01-21 12:03:00,
2013-01-21 05:04:00,14.2,8.3,30.11,NE,45,1.8,1.8,77,0.00,,,0.00,WUHU216HW,2013-01-21 12:04:00,
2013-01-21 05:05:00,14.2,8.3,30.11,NE,45,1.8,1.8,77,0.00,,,0.00,WUHU216HW,2013-01-21 12:05:00,
2013-01-21 05:09:00,14.2,8.3,30.10,East,90,0.4,2.5,77,0.00,,,0.00,WUHU216HW,2013-01-21 12:09:00,
2013-01-21 05:10:00,14.2,8.3,30.10,East,90,0.4,2.5,77,0.00,,,0.00,WUHU216HW,2013-01-21 12:10:00,
2013-01-21 05:14:00,14.2,8.7,30.11,NE,45,0.2,2.5,78,0.00,,,0.00,WUHU216HW,2013-01-21 12:14:00,
2013-01-21 05:15:00,14.2,8.7,30.10,NE,45,0.2,2.2,78,0.00,,,0.00,WUHU216HW,2013-01-21 12:15:00,
2013-01-21 05:19:00,14.2,8.7,30.10,NE,45,0.4,2.2,78,0.00,,,0.00,WUHU216HW,2013-01-21 12:19:00,
2013-01-21 05:20:00,14.2,8.7,30.10,East,90,0.4,2.2,78,0.00,,,0.00,WUHU216HW,2013-01-21 12:20:00,
2013-01-21 05:24:00,14.2,8.7,30.10,East,90,0.9,2.2,78,0.00,,,0.00,WUHU216HW,2013-01-21 12:24:00,
2013-01-21 05:25:00,14.2,8.7,30.10,ENE,68,0.0,2.2,78,0.00,,,0.00,WUHU216HW,2013-01-21 12:25:00,
2013-01-21 05:29:00,14.2,8.7,30.10,ENE,68,0.4,2.2,78,0.00,,,0.00,WUHU216HW,2013-01-21 12:29:00,
2013-01-21 05:30:00,14.2,8.7,30.10,ENE,68,0.4,2.2,78,0.00,,,0.00,WUHU216HW,2013-01-21 12:30:00,
2013-01-21 05:34:00,14.2,8.7,30.09,ENE,68,0.4,1.8,78,0.00,,,0.00,WUHU216HW,2013-01-21 12:34:00,
2013-01-21 05:35:00,14.2,8.7,30.09,NNE,23,0.4,1.8,78,0.00,,,0.00,WUHU216HW,2013-01-21 12:35:00,
2013-01-21 05:39:00,14.2,8.7,30.09,ENE,68,0.4,1.8,78,0.00,,,0.00,WUHU216HW,2013-01-21 12:39:00,
2013-01-21 05:40:00,14.2,8.7,30.09,ENE,68,0.0,1.8,78,0.00,,,0.00,WUHU216HW,2013-01-21 12:40:00,
2013-01-21 05:44:00,14.2,8.7,30.08,NE,45,0.0,0.7,78,0.00,,,0.00,WUHU216HW,2013-01-21 12:44:00,
2013-01-21 05:45:00,14.2,8.7,30.08,ENE,68,0.0,0.7,78,0.00,,,0.00,WUHU216HW,2013-01-21 12:45:00,
2013-01-21 05:49:00,14.4,8.8,30.08,NE,45,0.0,0.4,78,0.00,,,0.00,WUHU216HW,2013-01-21 12:49:00,
2013-01-21 05:50:00,14.4,8.8,30.08,East,90,0.2,0.4,78,0.00,,,0.00,WUHU216HW,2013-01-21 12:50:00,
2013-01-21 05:51:00,14.4,8.8,30.08,East,90,0.2,0.4,78,0.00,,,0.00,WUHU216HW,2013-01-21 12:51:00,
2013-01-21 05:55:00,14.6,8.9,30.09,North,0,0.4,0.4,78,0.00,,,0.00,WUHU216HW,2013-01-21 12:55:00,
2013-01-21 05:56:00,14.6,8.9,30.09,North,0,0.4,0.4,78,0.00,,,0.00,WUHU216HW,2013-01-21 12:56:00,
2013-01-21 06:00:00,14.8,9.1,30.09,NE,45,1.1,1.1,78,0.00,,,0.00,WUHU216HW,2013-01-21 13:00:00,
2013-01-21 06:01:00,14.8,9.1,30.09,North,0,1.1,1.1,78,0.00,,,0.00,WUHU216HW,2013-01-21 13:01:00,
2013-01-21 06:06:00,14.6,8.6,30.09,ENE,68,0.4,1.1,77,0.00,,,0.00,WUHU216HW,2013-01-21 13:06:00,
2013-01-21 06:11:00,14.4,8.8,30.08,ENE,68,0.4,3.4,78,0.00,,,0.00,WUHU216HW,2013-01-21 13:11:00,
2013-01-21 06:16:00,14.4,8.8,30.08,ENE,68,1.1,4.0,78,0.00,,,0.00,WUHU216HW,2013-01-21 13:16:00,
2013-01-21 06:21:00,14.2,8.9,30.08,East,90,1.1,4.0,79,0.00,,,0.00,WUHU216HW,2013-01-21 13:21:00,
2013-01-21 06:26:00,14.2,8.9,30.08,NE,45,1.8,3.1,79,0.00,,,0.00,WUHU216HW,2013-01-21 13:26:00,
2013-01-21 06:31:00,14.0,8.7,30.07,NNE,23,2.2,2.5,79,0.00,,,0.00,WUHU216HW,2013-01-21 13:31:00,
2013-01-21 06:32:00,14.2,8.9,30.07,NNE,23,0.7,2.2,79,0.00,,,0.00,WUHU216HW,2013-01-21 13:32:00,
2013-01-21 06:36:00,14.2,8.9,30.07,ENE,68,1.1,2.2,79,0.00,,,0.00,WUHU216HW,2013-01-21 13:36:00,
2013-01-21 06:37:00,14.2,8.9,30.07,NE,45,4.0,4.0,79,0.00,,,0.00,WUHU216HW,2013-01-21 13:37:00,
2013-01-21 06:41:00,14.2,8.9,30.07,NE,45,0.7,4.0,79,0.00,,,0.00,WUHU216HW,2013-01-21 13:41:00,
2013-01-21 06:42:00,14.2,8.9,30.07,NNE,23,1.8,4.0,79,0.00,,,0.00,WUHU216HW,2013-01-21 13:42:00,
2013-01-21 06:46:00,14.2,8.9,30.07,NE,45,1.8,4.0,79,0.00,,,0.00,WUHU216HW,2013-01-21 13:46:00,
2013-01-21 06:47:00,14.2,8.9,30.07,NE,45,1.8,4.0,79,0.00,,,0.00,WUHU216HW,2013-01-21 13:47:00,
2013-01-21 06:48:00,14.2,8.9,30.07,NE,45,1.8,3.1,79,0.00,,,0.00,WUHU216HW,2013-01-21 13:48:00,
2013-01-21 06:51:00,14.2,8.9,30.07,ENE,68,0.9,3.1,79,0.00,,,0.00,WUHU216HW,2013-01-21 13:51:00,
2013-01-21 06:52:00,14.2,8.9,30.07,ENE,68,0.9,3.1,79,0.00,,,0.00,WUHU216HW,2013-01-21 13:52:00,
2013-01-21 06:53:00,14.2,8.9,30.07,NE,45,1.1,3.1,79,0.00,,,0.00,WUHU216HW,2013-01-21 13:53:00,
2013-01-21 06:56:00,14.4,9.1,30.07,NE,45,0.2,2.2,79,0.00,,,0.00,WUHU216HW,2013-01-21 13:56:00,
2013-01-21 06:57:00,14.4,9.1,30.07,NE,45,0.2,2.2,79,0.00,,,0.00,WUHU216HW,2013-01-21 13:57:00,
2013-01-21 06:58:00,14.4,9.1,30.07,NE,45,0.4,2.2,79,0.00,,,0.00,WUHU216HW,2013-01-21 13:58:00,
2013-01-21 07:01:00,14.4,9.1,30.07,NE,45,0.7,2.2,79,0.00,,,0.00,WUHU216HW,2013-01-21 14:01:00,
2013-01-21 07:02:00,14.4,9.1,30.07,ENE,68,0.2,2.2,79,0.00,,,0.00,WUHU216HW,2013-01-21 14:02:00,
2013-01-21 07:03:00,14.4,9.1,30.07,ENE,68,0.2,2.2,79,0.00,,,0.00,WUHU216HW,2013-01-21 14:03:00,
2013-01-21 07:06:00,14.6,9.3,30.07,East,90,1.6,2.2,79,0.00,,,0.00,WUHU216HW,2013-01-21 14:06:00,
2013-01-21 07:07:00,14.6,9.3,30.07,NE,45,2.7,2.7,79,0.00,,,0.00,WUHU216HW,2013-01-21 14:07:00,
2013-01-21 07:08:00,14.6,9.3,30.07,NE,45,2.9,2.9,79,0.00,,,0.00,WUHU216HW,2013-01-21 14:08:00,
2013-01-21 07:12:00,14.6,9.3,30.07,ENE,68,0.4,2.9,79,0.00,,,0.00,WUHU216HW,2013-01-21 14:12:00,
2013-01-21 07:13:00,14.6,9.3,30.07,East,90,1.1,2.9,79,0.00,,,0.00,WUHU216HW,2013-01-21 14:13:00,
2013-01-21 07:17:00,14.6,9.3,30.06,NNE,23,2.9,4.0,79,0.00,,,0.00,WUHU216HW,2013-01-21 14:17:00,
2013-01-21 07:18:00,14.6,9.3,30.07,NE,45,0.7,4.0,79,0.00,,,0.00,WUHU216HW,2013-01-21 14:18:00,
2013-01-21 07:22:00,14.6,9.3,30.07,NNE,23,2.7,4.0,79,0.00,,,0.00,WUHU216HW,2013-01-21 14:22:00,
2013-01-21 07:23:00,14.6,9.3,30.07,NNE,23,2.7,4.0,79,0.00,,,0.00,WUHU216HW,2013-01-21 14:23:00,
2013-01-21 07:27:00,14.4,9.1,30.07,ENE,68,0.9,2.7,79,0.00,,,0.00,WUHU216HW,2013-01-21 14:27:00,
2013-01-21 07:28:00,14.4,9.1,30.07,ENE,68,2.2,2.7,79,0.00,,,0.00,WUHU216HW,2013-01-21 14:28:00,
2013-01-21 07:32:00,14.4,9.1,30.07,NNE,23,1.6,5.1,79,0.00,,,0.00,WUHU216HW,2013-01-21 14:32:00,
2013-01-21 07:33:00,14.4,9.1,30.06,ENE,68,1.6,5.1,79,0.00,,,0.00,WUHU216HW,2013-01-21 14:33:00,
2013-01-21 07:37:00,14.4,9.1,30.06,NE,45,0.9,5.1,79,0.00,,,0.00,WUHU216HW,2013-01-21 14:37:00,
2013-01-21 07:38:00,14.4,9.1,30.07,NE,45,1.1,5.1,79,0.00,,,0.00,WUHU216HW,2013-01-21 14:38:00,
2013-01-21 07:42:00,14.4,9.1,30.07,NE,45,1.3,1.8,79,0.00,,,0.00,WUHU216HW,2013-01-21 14:42:00,
2013-01-21 07:43:00,14.6,9.3,30.07,East,90,0.9,1.8,79,0.00,,,0.00,WUHU216HW,2013-01-21 14:43:00,
2013-01-21 07:44:00,14.6,9.3,30.07,East,90,0.9,1.8,79,0.00,,,0.00,WUHU216HW,2013-01-21 14:44:00,
2013-01-21 07:47:00,14.6,9.3,30.07,East,90,0.9,1.8,79,0.00,,,0.00,WUHU216HW,2013-01-21 14:47:00,
2013-01-21 07:48:00,14.4,9.1,30.06,NE,45,0.7,1.8,79,0.00,,,0.00,WUHU216HW,2013-01-21 14:48:00,
2013-01-21 07:49:00,14.4,9.1,30.06,NE,45,0.7,1.8,79,0.00,,,0.00,WUHU216HW,2013-01-21 14:49:00,
2013-01-21 07:50:00,14.6,9.3,30.07,East,90,0.2,1.6,79,0.00,,,0.00,WUHU216HW,2013-01-21 14:50:00,
2013-01-21 07:52:00,14.6,9.3,30.07,NNE,23,2.5,2.5,79,0.00,,,0.00,WUHU216HW,2013-01-21 14:52:00,
2013-01-21 07:53:00,14.6,9.3,30.07,NE,45,2.2,2.5,79,0.00,,,0.00,WUHU216HW,2013-01-21 14:53:00,
2013-01-21 07:54:00,14.6,9.3,30.07,NE,45,2.2,2.5,79,0.00,,,0.00,WUHU216HW,2013-01-21 14:54:00,
2013-01-21 07:55:00,14.6,9.3,30.07,NE,45,2.2,2.5,79,0.00,,,0.00,WUHU216HW,2013-01-21 14:55:00,
2013-01-21 07:57:00,14.6,9.3,30.07,East,90,0.4,2.5,79,0.00,,,0.00,WUHU216HW,2013-01-21 14:57:00,
2013-01-21 07:58:00,14.8,9.5,30.07,NE,45,0.9,2.5,79,0.00,,,0.00,WUHU216HW,2013-01-21 14:58:00,
2013-01-21 07:59:00,14.8,9.5,30.07,NE,45,0.9,2.5,79,0.00,,,0.00,WUHU216HW,2013-01-21 14:59:00,
2013-01-21 08:00:00,14.8,9.5,30.07,NE,45,1.1,2.5,79,0.00,,,0.00,WUHU216HW,2013-01-21 15:00:00,
2013-01-21 08:02:00,14.8,9.5,30.07,NE,45,1.1,2.5,79,0.00,,,0.00,WUHU216HW,2013-01-21 15:02:00,
2013-01-21 08:03:00,14.8,9.5,30.07,NNE,23,0.4,2.5,79,0.00,,,0.00,WUHU216HW,2013-01-21 15:03:00,
2013-01-21 08:04:00,14.8,9.5,30.07,East,90,1.3,2.5,79,0.00,,,0.00,WUHU216HW,2013-01-21 15:04:00,
2013-01-21 08:05:00,14.8,9.5,30.06,NE,45,1.1,2.5,79,0.00,,,0.00,WUHU216HW,2013-01-21 15:05:00,
2013-01-21 08:07:00,14.8,9.5,30.06,NNE,23,1.3,2.5,79,0.00,,,0.00,WUHU216HW,2013-01-21 15:07:00,
2013-01-21 08:09:00,14.8,9.5,30.06,North,0,1.3,2.5,79,0.00,,,0.00,WUHU216HW,2013-01-21 15:09:00,
2013-01-21 08:10:00,14.8,9.5,30.06,NNE,23,0.2,1.3,79,0.00,,,0.00,WUHU216HW,2013-01-21 15:10:00,
2013-01-21 08:13:00,14.8,9.5,30.06,NE,45,1.3,1.3,79,0.00,,,0.00,WUHU216HW,2013-01-21 15:13:00,
2013-01-21 08:14:00,14.8,9.5,30.06,NE,45,0.2,1.3,79,0.00,,,0.00,WUHU216HW,2013-01-21 15:14:00,
2013-01-21 08:15:00,14.8,9.5,30.06,NE,45,0.2,1.3,79,0.00,,,0.00,WUHU216HW,2013-01-21 15:15:00,
2013-01-21 08:18:00,14.8,9.5,30.07,NE,45,0.2,1.3,79,0.00,,,0.00,WUHU216HW,2013-01-21 15:18:00,
2013-01-21 08:19:00,14.9,9.6,30.07,NE,45,1.6,1.6,79,0.00,,,0.00,WUHU216HW,2013-01-21 15:19:00,
2013-01-21 08:20:00,14.9,9.6,30.07,NE,45,1.6,1.6,79,0.00,,,0.00,WUHU216HW,2013-01-21 15:20:00,
2013-01-21 08:23:00,15.1,9.8,30.07,NE,45,1.1,1.6,79,0.00,,,0.00,WUHU216HW,2013-01-21 15:23:00,
2013-01-21 08:24:00,15.1,9.8,30.07,NE,45,1.1,1.6,79,0.00,,,0.00,WUHU216HW,2013-01-21 15:24:00,
2013-01-21 08:25:00,15.1,9.8,30.07,NE,45,1.1,1.6,79,0.00,,,0.00,WUHU216HW,2013-01-21 15:25:00,
2013-01-21 08:29:00,15.3,10.0,30.07,North,0,0.4,1.6,79,0.00,,,0.00,WUHU216HW,2013-01-21 15:29:00,
2013-01-21 08:30:00,15.5,10.2,30.07,North,0,0.7,1.6,79,0.00,,,0.00,WUHU216HW,2013-01-21 15:30:00,
2013-01-21 08:34:00,15.5,9.8,30.07,NE,45,1.3,1.6,78,0.00,,,0.00,WUHU216HW,2013-01-21 15:34:00,
2013-01-21 08:35:00,15.5,9.8,30.07,NE,45,1.1,1.6,78,0.00,,,0.00,WUHU216HW,2013-01-21 15:35:00,
2013-01-21 08:39:00,15.5,9.8,30.08,NE,45,1.1,2.9,78,0.00,,,0.00,WUHU216HW,2013-01-21 15:39:00,
2013-01-21 08:40:00,15.5,9.8,30.07,NNE,23,0.7,2.9,78,0.00,,,0.00,WUHU216HW,2013-01-21 15:40:00,
2013-01-21 08:44:00,15.5,9.8,30.07,NNE,23,0.7,2.9,78,0.00,,,0.00,WUHU216HW,2013-01-21 15:44:00,
2013-01-21 08:45:00,15.5,9.8,30.07,ENE,68,0.4,2.9,78,0.00,,,0.00,WUHU216HW,2013-01-21 15:45:00,
2013-01-21 08:49:00,15.7,10.4,30.07,East,90,0.9,2.5,79,0.00,,,0.00,WUHU216HW,2013-01-21 15:49:00,
2013-01-21 08:50:00,15.7,10.4,30.07,East,90,0.9,2.5,79,0.00,,,0.00,WUHU216HW,2013-01-21 15:50:00,
2013-01-21 08:51:00,15.7,10.4,30.07,East,90,0.4,2.5,79,0.00,,,0.00,WUHU216HW,2013-01-21 15:51:00,
2013-01-21 08:54:00,15.7,10.4,30.07,NNE,23,1.3,2.5,79,0.00,,,0.00,WUHU216HW,2013-01-21 15:54:00,
2013-01-21 08:55:00,15.7,10.4,30.07,NNE,23,1.3,2.5,79,0.00,,,0.00,WUHU216HW,2013-01-21 15:55:00,
2013-01-21 08:56:00,15.7,10.0,30.07,NE,45,0.9,2.5,78,0.00,,,0.00,WUHU216HW,2013-01-21 15:56:00,
2013-01-21 08:59:00,15.8,10.2,30.07,NNE,23,1.1,1.3,78,0.00,,,0.00,WUHU216HW,2013-01-21 15:59:00,
2013-01-21 09:00:00,15.8,10.2,30.07,NNE,23,1.1,1.3,78,0.00,,,0.00,WUHU216HW,2013-01-21 16:00:00,
2013-01-21 09:01:00,15.8,10.2,30.07,NNE,23,1.1,1.3,78,0.00,,,0.00,WUHU216HW,2013-01-21 16:01:00,
2013-01-21 09:05:00,16.0,10.4,30.06,NNE,23,0.0,1.1,78,0.00,,,0.00,WUHU216HW,2013-01-21 16:05:00,
2013-01-21 09:06:00,16.0,10.4,30.06,NE,45,0.4,1.1,78,0.00,,,0.00,WUHU216HW,2013-01-21 16:06:00,
2013-01-21 09:10:00,16.2,10.5,30.06,NNE,23,0.7,0.7,78,0.00,,,0.00,WUHU216HW,2013-01-21 16:10:00,
2013-01-21 09:11:00,16.2,10.5,30.06,North,0,0.0,0.7,78,0.00,,,0.00,WUHU216HW,2013-01-21 16:11:00,
2013-01-21 09:15:00,16.4,10.7,30.06,NW,315,0.0,0.7,78,0.00,,,0.00,WUHU216HW,2013-01-21 16:15:00,
2013-01-21 09:16:00,16.4,10.7,30.06,NW,315,0.0,0.7,78,0.00,,,0.00,WUHU216HW,2013-01-21 16:16:00,
2013-01-21 09:20:00,16.6,10.9,30.06,WNW,293,0.0,0.4,78,0.00,,,0.00,WUHU216HW,2013-01-21 16:20:00,
2013-01-21 09:21:00,16.6,10.9,30.07,WNW,293,0.0,0.4,78,0.00,,,0.00,WUHU216HW,2013-01-21 16:21:00,
2013-01-21 09:25:00,16.9,11.2,30.07,WNW,293,0.0,0.2,78,0.00,,,0.00,WUHU216HW,2013-01-21 16:25:00,
2013-01-21 09:26:00,16.9,11.2,30.07,West,270,0.4,0.4,78,0.00,,,0.00,WUHU216HW,2013-01-21 16:26:00,
2013-01-21 09:30:00,16.9,11.2,30.07,WNW,293,0.4,1.1,78,0.00,,,0.00,WUHU216HW,2013-01-21 16:30:00,
2013-01-21 09:31:00,16.9,11.2,30.06,WNW,293,0.4,1.1,78,0.00,,,0.00,WUHU216HW,2013-01-21 16:31:00,
2013-01-21 09:32:00,17.1,11.3,30.06,West,270,0.0,1.1,78,0.00,,,0.00,WUHU216HW,2013-01-21 16:32:00,
2013-01-21 09:35:00,17.3,11.5,30.06,WNW,293,0.0,1.1,78,0.00,,,0.00,WUHU216HW,2013-01-21 16:35:00,
2013-01-21 09:36:00,17.3,11.5,30.06,WNW,293,0.0,1.1,78,0.00,,,0.00,WUHU216HW,2013-01-21 16:36:00,
2013-01-21 09:37:00,17.3,11.5,30.06,WNW,293,0.0,1.1,78,0.00,,,0.00,WUHU216HW,2013-01-21 16:37:00,
2013-01-21 09:40:00,17.6,11.5,30.06,NNW,338,0.0,0.4,77,0.00,,,0.00,WUHU216HW,2013-01-21 16:40:00,
2013-01-21 09:41:00,17.6,11.5,30.07,North,0,0.0,0.0,77,0.00,,,0.00,WUHU216HW,2013-01-21 16:41:00,
2013-01-21 09:42:00,17.6,11.5,30.07,North,0,0.0,0.0,77,0.00,,,0.00,WUHU216HW,2013-01-21 16:42:00,
2013-01-21 09:46:00,17.6,11.5,30.07,ENE,68,0.2,0.4,77,0.00,,,0.00,WUHU216HW,2013-01-21 16:46:00,
2013-01-21 09:47:00,17.6,11.5,30.07,North,0,0.4,0.4,77,0.00,,,0.00,WUHU216HW,2013-01-21 16:47:00,
2013-01-21 09:52:00,17.8,11.4,30.07,West,270,0.4,0.4,76,0.00,,,0.00,WUHU216HW,2013-01-21 16:52:00,
2013-01-21 09:53:00,17.8,11.4,30.06,WNW,293,0.0,0.4,76,0.00,,,0.00,WUHU216HW,2013-01-21 16:53:00,
2013-01-21 09:57:00,18.0,11.6,30.06,NW,315,0.0,0.4,76,0.00,,,0.00,WUHU216HW,2013-01-21 16:57:00,
2013-01-21 09:58:00,18.0,11.6,30.06,WNW,293,0.4,0.4,76,0.00,,,0.00,WUHU216HW,2013-01-21 16:58:00,
2013-01-21 10:02:00,18.2,11.8,30.06,North,0,0.0,0.4,76,0.00,,,0.00,WUHU216HW,2013-01-21 17:02:00,
2013-01-21 10:03:00,18.2,11.8,30.06,North,0,0.0,0.4,76,0.00,,,0.00,WUHU216HW,2013-01-21 17:03:00,
2013-01-21 10:07:00,18.4,12.0,30.06,WSW,248,0.4,0.4,76,0.00,,,0.00,WUHU216HW,2013-01-21 17:07:00,
2013-01-21 10:08:00,18.5,12.2,30.06,WSW,248,0.0,0.4,76,0.00,,,0.00,WUHU216HW,2013-01-21 17:08:00,
2013-01-21 10:12:00,18.9,12.5,30.05,WSW,248,1.3,1.3,76,0.00,,,0.00,WUHU216HW,2013-01-21 17:12:00,
2013-01-21 10:13:00,18.9,12.5,30.05,WSW,248,1.3,1.3,76,0.00,,,0.00,WUHU216HW,2013-01-21 17:13:00,
2013-01-21 10:17:00,19.3,12.8,30.05,SW,225,0.2,1.3,76,0.00,,,0.00,WUHU216HW,2013-01-21 17:17:00,
2013-01-21 10:18:00,19.3,12.8,30.04,West,270,1.1,1.3,76,0.00,,,0.00,WUHU216HW,2013-01-21 17:18:00,
2013-01-21 10:22:00,19.6,12.9,30.04,WNW,293,0.4,1.8,75,0.00,,,0.00,WUHU216HW,2013-01-21 17:22:00,
2013-01-21 10:23:00,19.8,13.1,30.04,WSW,248,1.8,1.8,75,0.00,,,0.00,WUHU216HW,2013-01-21 17:23:00,
2013-01-21 10:28:00,20.0,13.2,30.04,WSW,248,0.2,1.8,75,0.00,,,0.00,WUHU216HW,2013-01-21 17:28:00,
2013-01-21 10:29:00,20.0,13.2,30.03,WNW,293,0.4,1.8,75,0.00,,,0.00,WUHU216HW,2013-01-21 17:29:00,
2013-01-21 10:33:00,20.3,13.6,30.04,NE,45,1.6,1.8,75,0.00,,,0.00,WUHU216HW,2013-01-21 17:33:00,
2013-01-21 10:34:00,20.5,13.5,30.04,ENE,68,0.4,1.6,74,0.00,,,0.00,WUHU216HW,2013-01-21 17:34:00,
2013-01-21 10:38:00,20.5,13.5,30.04,NE,45,1.8,1.8,74,0.00,,,0.00,WUHU216HW,2013-01-21 17:38:00,
2013-01-21 10:39:00,20.5,13.5,30.04,NE,45,1.3,1.8,74,0.00,,,0.00,WUHU216HW,2013-01-21 17:39:00,
2013-01-21 10:43:00,20.7,14.0,30.04,NNE,23,0.7,2.0,75,0.00,,,0.00,WUHU216HW,2013-01-21 17:43:00,
2013-01-21 10:44:00,20.9,14.1,30.04,NNE,23,0.0,2.9,75,0.00,,,0.00,WUHU216HW,2013-01-21 17:44:00,
2013-01-21 10:48:00,20.9,13.9,30.04,NE,45,1.3,3.1,74,0.00,,,0.00,WUHU216HW,2013-01-21 17:48:00,
2013-01-21 10:49:00,20.9,13.9,30.04,NE,45,1.1,3.1,74,0.00,,,0.00,WUHU216HW,2013-01-21 17:49:00,
2013-01-21 10:53:00,21.1,14.1,30.04,ENE,68,2.5,3.1,74,0.00,,,0.00,WUHU216HW,2013-01-21 17:53:00,
2013-01-21 10:54:00,21.1,14.1,30.04,NNE,23,1.8,3.1,74,0.00,,,0.00,WUHU216HW,2013-01-21 17:54:00,
2013-01-21 10:58:00,21.2,13.9,30.04,NE,45,2.0,3.8,73,0.00,,,0.00,WUHU216HW,2013-01-21 17:58:00,
2013-01-21 10:59:00,21.2,13.9,30.04,NE,45,0.9,3.8,73,0.00,,,0.00,WUHU216HW,2013-01-21 17:59:00,
2013-01-21 11:03:00,21.6,14.2,30.04,NNE,23,2.5,3.8,73,0.00,,,0.00,WUHU216HW,2013-01-21 18:03:00,
2013-01-21 11:04:00,21.8,14.4,30.04,East,90,2.2,3.8,73,0.00,,,0.00,WUHU216HW,2013-01-21 18:04:00,
2013-01-21 11:05:00,21.8,14.4,30.04,East,90,2.5,3.8,73,0.00,,,0.00,WUHU216HW,2013-01-21 18:05:00,
2013-01-21 11:08:00,22.0,14.6,30.03,SE,135,0.7,3.1,73,0.00,,,0.00,WUHU216HW,2013-01-21 18:08:00,
2013-01-21 11:09:00,22.0,14.6,30.03,ENE,68,2.0,3.1,73,0.00,,,0.00,WUHU216HW,2013-01-21 18:09:00,
2013-01-21 11:10:00,22.1,14.5,30.03,North,0,0.4,3.1,72,0.00,,,0.00,WUHU216HW,2013-01-21 18:10:00,
2013-01-21 11:13:00,22.5,14.5,30.03,NE,45,1.1,4.0,71,0.00,,,0.00,WUHU216HW,2013-01-21 18:13:00,
2013-01-21 11:14:00,22.5,14.9,30.03,ENE,68,0.9,4.0,72,0.00,,,0.00,WUHU216HW,2013-01-21 18:14:00,
2013-01-21 11:15:00,22.5,14.9,30.03,NE,45,3.4,4.0,72,0.00,,,0.00,WUHU216HW,2013-01-21 18:15:00,
2013-01-21 11:18:00,22.7,15.0,30.03,NNE,23,1.1,4.0,72,0.00,,,0.00,WUHU216HW,2013-01-21 18:18:00,
2013-01-21 11:19:00,22.7,14.7,30.03,NE,45,1.6,4.0,71,0.00,,,0.00,WUHU216HW,2013-01-21 18:19:00,
2013-01-21 11:20:00,22.7,14.7,30.03,NNE,23,0.9,4.0,71,0.00,,,0.00,WUHU216HW,2013-01-21 18:20:00,
2013-01-21 11:23:00,22.7,14.7,30.03,NNE,23,1.1,3.4,71,0.00,,,0.00,WUHU216HW,2013-01-21 18:23:00,
2013-01-21 11:24:00,22.7,14.7,30.03,ENE,68,3.8,3.8,71,0.00,,,0.00,WUHU216HW,2013-01-21 18:24:00,
2013-01-21 11:25:00,22.7,14.4,30.02,NNE,23,3.4,3.8,70,0.00,,,0.00,WUHU216HW,2013-01-21 18:25:00,
2013-01-21 11:26:00,22.7,14.4,30.02,NNE,23,2.5,3.8,70,0.00,,,0.00,WUHU216HW,2013-01-21 18:26:00,
2013-01-21 11:29:00,22.7,14.4,30.02,NNE,23,2.0,3.8,70,0.00,,,0.00,WUHU216HW,2013-01-21 18:29:00,
2013-01-21 11:31:00,22.7,14.4,30.02,ENE,68,0.4,3.8,70,0.00,,,0.00,WUHU216HW,2013-01-21 18:31:00,
2013-01-21 11:34:00,22.7,14.4,30.02,NNE,23,1.1,3.4,70,0.00,,,0.00,WUHU216HW,2013-01-21 18:34:00,
2013-01-21 11:36:00,22.9,14.6,30.01,NE,45,2.0,2.5,70,0.00,,,0.00,WUHU216HW,2013-01-21 18:36:00,
2013-01-21 11:37:00,22.9,14.6,30.01,ENE,68,2.5,2.5,70,0.00,,,0.00,WUHU216HW,2013-01-21 18:37:00,
2013-01-21 11:39:00,23.0,14.8,30.01,ENE,68,0.0,2.5,70,0.00,,,0.00,WUHU216HW,2013-01-21 18:39:00,
2013-01-21 11:41:00,23.2,15.0,30.01,ENE,68,0.4,3.6,70,0.00,,,0.00,WUHU216HW,2013-01-21 18:41:00,
2013-01-21 11:42:00,23.4,15.1,30.01,North,0,1.1,3.6,70,0.00,,,0.00,WUHU216HW,2013-01-21 18:42:00,
2013-01-21 11:44:00,23.6,15.2,30.01,NNE,23,2.0,3.6,70,0.00,,,0.00,WUHU216HW,2013-01-21 18:44:00,
2013-01-21 11:47:00,23.6,15.2,30.01,NE,45,0.7,3.6,70,0.00,,,0.00,WUHU216HW,2013-01-21 18:47:00,
2013-01-21 11:49:00,23.8,15.0,30.01,ENE,68,2.9,3.6,69,0.00,,,0.00,WUHU216HW,2013-01-21 18:49:00,
2013-01-21 11:52:00,23.9,15.2,30.01,NE,45,1.6,3.1,69,0.00,,,0.00,WUHU216HW,2013-01-21 18:52:00,
2013-01-21 11:54:00,24.1,15.4,30.01,NNE,23,2.9,3.1,69,0.00,,,0.00,WUHU216HW,2013-01-21 18:54:00,
2013-01-21 11:55:00,24.1,15.4,30.01,NNE,23,2.9,3.1,69,0.00,,,0.00,WUHU216HW,2013-01-21 18:55:00,
2013-01-21 11:57:00,24.1,15.4,30.01,ENE,68,1.8,3.1,69,0.00,,,0.00,WUHU216HW,2013-01-21 18:57:00,
2013-01-21 11:59:00,24.3,15.6,30.01,ENE,68,1.1,2.9,69,0.00,,,0.00,WUHU216HW,2013-01-21 18:59:00,
2013-01-21 12:00:00,24.3,15.6,30.01,NNE,23,1.8,2.9,69,0.00,,,0.00,WUHU216HW,2013-01-21 19:00:00,
2013-01-21 12:02:00,24.7,15.8,30.01,ESE,113,0.7,2.9,69,0.00,,,0.00,WUHU216HW,2013-01-21 19:02:00,
2013-01-21 12:05:00,24.7,15.8,30.00,ENE,68,0.7,1.8,69,0.00,,,0.00,WUHU216HW,2013-01-21 19:05:00,
2013-01-21 12:07:00,25.0,16.6,29.99,North,0,0.4,1.8,70,0.00,,,0.00,WUHU216HW,2013-01-21 19:07:00,
2013-01-21 12:10:00,25.2,16.4,29.99,ESE,113,0.2,1.1,69,0.00,,,0.00,WUHU216HW,2013-01-21 19:10:00,
2013-01-21 12:12:00,25.4,16.6,29.99,SSE,158,1.3,1.3,69,0.00,,,0.00,WUHU216HW,2013-01-21 19:12:00,
2013-01-21 12:15:00,25.6,17.1,29.99,NE,45,0.0,1.3,70,0.00,,,0.00,WUHU216HW,2013-01-21 19:15:00,
2013-01-21 12:16:00,25.6,17.1,29.99,NE,45,0.0,1.3,70,0.00,,,0.00,WUHU216HW,2013-01-21 19:16:00,
2013-01-21 12:17:00,25.7,17.3,29.99,WSW,248,0.4,1.3,70,0.00,,,0.00,WUHU216HW,2013-01-21 19:17:00,
2013-01-21 12:20:00,26.3,17.8,29.99,NE,45,1.6,1.6,70,0.00,,,0.00,WUHU216HW,2013-01-21 19:20:00,
2013-01-21 12:21:00,26.3,17.8,29.99,NE,45,1.6,1.6,70,0.00,,,0.00,WUHU216HW,2013-01-21 19:21:00,
2013-01-21 12:22:00,26.6,17.8,29.99,SE,135,0.4,1.6,69,0.00,,,0.00,WUHU216HW,2013-01-21 19:22:00,
2013-01-21 12:23:00,26.6,17.8,29.99,SE,135,0.4,1.6,69,0.00,,,0.00,WUHU216HW,2013-01-21 19:23:00,
2013-01-21 12:25:00,27.0,18.2,29.99,South,180,0.4,1.6,69,0.00,,,0.00,WUHU216HW,2013-01-21 19:25:00,
2013-01-21 12:26:00,27.0,18.2,29.99,SE,135,0.0,1.6,69,0.00,,,0.00,WUHU216HW,2013-01-21 19:26:00,
2013-01-21 12:28:00,27.2,18.4,29.99,North,0,0.4,1.6,69,0.00,,,0.00,WUHU216HW,2013-01-21 19:28:00,
2013-01-21 12:30:00,27.5,18.4,29.98,ENE,68,0.7,1.8,68,0.00,,,0.00,WUHU216HW,2013-01-21 19:30:00,
2013-01-21 12:31:00,27.7,18.5,29.99,North,0,0.9,1.8,68,0.00,,,0.00,WUHU216HW,2013-01-21 19:31:00,
2013-01-21 12:33:00,27.7,18.5,29.99,NW,315,0.2,1.8,68,0.00,,,0.00,WUHU216HW,2013-01-21 19:33:00,
2013-01-21 12:36:00,27.9,18.4,29.98,North,0,1.6,1.8,67,0.00,,,0.00,WUHU216HW,2013-01-21 19:36:00,
2013-01-21 12:38:00,28.3,18.7,29.99,North,0,0.4,1.6,67,0.00,,,0.00,WUHU216HW,2013-01-21 19:38:00,
2013-01-21 12:41:00,28.3,18.7,29.98,East,90,1.6,1.6,67,0.00,,,0.00,WUHU216HW,2013-01-21 19:41:00,
2013-01-21 12:43:00,28.4,17.8,29.98,NNE,23,2.7,2.7,64,0.00,,,0.00,WUHU216HW,2013-01-21 19:43:00,
2013-01-21 12:46:00,28.3,17.6,29.98,NE,45,3.4,3.4,64,0.00,,,0.00,WUHU216HW,2013-01-21 19:46:00,
2013-01-21 12:48:00,28.1,17.5,29.98,NE,45,1.6,3.4,64,0.00,,,0.00,WUHU216HW,2013-01-21 19:48:00,
2013-01-21 12:51:00,28.3,17.6,29.98,East,90,1.1,3.4,64,0.00,,,0.00,WUHU216HW,2013-01-21 19:51:00,
2013-01-21 12:53:00,28.3,17.6,29.98,NNE,23,3.6,3.6,64,0.00,,,0.00,WUHU216HW,2013-01-21 19:53:00,
2013-01-21 12:56:00,28.3,17.6,29.97,ENE,68,0.2,3.6,64,0.00,,,0.00,WUHU216HW,2013-01-21 19:56:00,
2013-01-21 12:58:00,28.4,18.2,29.97,SSE,158,0.4,3.6,65,0.00,,,0.00,WUHU216HW,2013-01-21 19:58:00,
2013-01-21 13:01:00,28.4,18.2,29.97,East,90,1.3,3.6,65,0.00,,,0.00,WUHU216HW,2013-01-21 20:01:00,
2013-01-21 13:03:00,28.4,17.8,29.97,NE,45,0.9,3.6,64,0.00,,,0.00,WUHU216HW,2013-01-21 20:03:00,
2013-01-21 13:06:00,28.8,18.2,29.97,South,180,0.4,2.0,64,0.00,,,0.00,WUHU216HW,2013-01-21 20:06:00,
2013-01-21 13:08:00,29.0,18.3,29.97,NE,45,2.5,2.5,64,0.00,,,0.00,WUHU216HW,2013-01-21 20:08:00,
2013-01-21 13:09:00,29.0,17.9,29.97,ESE,113,1.1,2.5,63,0.00,,,0.00,WUHU216HW,2013-01-21 20:09:00,
2013-01-21 13:11:00,29.2,18.1,29.96,East,90,0.7,2.5,63,0.00,,,0.00,WUHU216HW,2013-01-21 20:11:00,
2013-01-21 13:13:00,29.2,18.5,29.96,ESE,113,0.4,2.5,64,0.00,,,0.00,WUHU216HW,2013-01-21 20:13:00,
2013-01-21 13:14:00,29.2,18.1,29.96,NE,45,1.3,2.5,63,0.00,,,0.00,WUHU216HW,2013-01-21 20:14:00,
2013-01-21 13:17:00,29.2,17.7,29.96,NE,45,3.1,3.6,62,0.00,,,0.00,WUHU216HW,2013-01-21 20:17:00,
2013-01-21 13:18:00,29.3,17.9,29.96,NNE,23,3.8,3.8,62,0.00,,,0.00,WUHU216HW,2013-01-21 20:18:00,
2013-01-21 13:19:00,29.3,18.3,29.96,NNE,23,3.8,3.8,63,0.00,,,0.00,WUHU216HW,2013-01-21 20:19:00,
2013-01-21 13:22:00,29.3,18.3,29.96,NE,45,1.1,3.8,63,0.00,,,0.00,WUHU216HW,2013-01-21 20:22:00,
2013-01-21 13:23:00,29.5,18.5,29.96,NE,45,2.2,3.8,63,0.00,,,0.00,WUHU216HW,2013-01-21 20:23:00,
2013-01-21 13:24:00,29.5,18.5,29.96,NE,45,2.2,3.8,63,0.00,,,0.00,WUHU216HW,2013-01-21 20:24:00,
2013-01-21 13:27:00,29.5,18.1,29.96,NNE,23,4.0,4.0,62,0.00,,,0.00,WUHU216HW,2013-01-21 20:27:00,
2013-01-21 13:28:00,29.5,18.1,29.96,East,90,1.1,4.0,62,0.00,,,0.00,WUHU216HW,2013-01-21 20:28:00,
2013-01-21 13:30:00,29.3,18.3,29.96,East,90,3.8,4.0,63,0.00,,,0.00,WUHU216HW,2013-01-21 20:30:00,
2013-01-21 13:32:00,29.3,17.9,29.96,NNE,23,5.4,5.8,62,0.00,,,0.00,WUHU216HW,2013-01-21 20:32:00,
2013-01-21 13:33:00,29.3,17.9,29.96,ESE,113,4.0,5.8,62,0.00,,,0.00,WUHU216HW,2013-01-21 20:33:00,
2013-01-21 13:34:00,29.3,17.9,29.96,NE,45,5.8,5.8,62,0.00,,,0.00,WUHU216HW,2013-01-21 20:34:00,
2013-01-21 13:35:00,29.2,17.7,29.96,NNE,23,3.1,5.8,62,0.00,,,0.00,WUHU216HW,2013-01-21 20:35:00,
2013-01-21 13:37:00,29.2,17.7,29.96,NNE,23,2.7,5.8,62,0.00,,,0.00,WUHU216HW,2013-01-21 20:37:00,
2013-01-21 13:39:00,29.2,17.7,29.96,ENE,68,3.8,5.8,62,0.00,,,0.00,WUHU216HW,2013-01-21 20:39:00,
2013-01-21 13:40:00,29.2,17.7,29.96,NNE,23,0.4,5.8,62,0.00,,,0.00,WUHU216HW,2013-01-21 20:40:00,
2013-01-21 13:42:00,29.2,17.7,29.95,NE,45,4.0,5.8,62,0.00,,,0.00,WUHU216HW,2013-01-21 20:42:00,
2013-01-21 13:44:00,29.2,17.7,29.95,ENE,68,1.6,4.0,62,0.00,,,0.00,WUHU216HW,2013-01-21 20:44:00,
2013-01-21 13:45:00,29.3,17.9,29.95,ESE,113,1.1,4.0,62,0.00,,,0.00,WUHU216HW,2013-01-21 20:45:00,
2013-01-21 13:47:00,29.3,18.3,29.95,East,90,0.7,4.0,63,0.00,,,0.00,WUHU216HW,2013-01-21 20:47:00,
2013-01-21 13:49:00,29.5,18.5,29.94,ENE,68,3.4,4.0,63,0.00,,,0.00,WUHU216HW,2013-01-21 20:49:00,
2013-01-21 13:50:00,29.5,18.5,29.94,ENE,68,0.7,4.0,63,0.00,,,0.00,WUHU216HW,2013-01-21 20:50:00,
2013-01-21 13:52:00,29.5,18.5,29.94,NE,45,1.8,3.4,63,0.00,,,0.00,WUHU216HW,2013-01-21 20:52:00,
2013-01-21 13:54:00,29.5,18.1,29.94,East,90,4.5,4.5,62,0.00,,,0.00,WUHU216HW,2013-01-21 20:54:00,
2013-01-21 13:55:00,29.5,18.1,29.94,East,90,4.5,4.5,62,0.00,,,0.00,WUHU216HW,2013-01-21 20:55:00,
2013-01-21 13:57:00,29.3,17.9,29.94,ENE,68,1.6,5.1,62,0.00,,,0.00,WUHU216HW,2013-01-21 20:57:00,
2013-01-21 13:59:00,29.3,17.9,29.94,ESE,113,1.1,5.1,62,0.00,,,0.00,WUHU216HW,2013-01-21 20:59:00,
2013-01-21 14:00:00,29.3,17.9,29.94,ESE,113,1.1,5.1,62,0.00,,,0.00,WUHU216HW,2013-01-21 21:00:00,
2013-01-21 14:03:00,29.5,18.5,29.94,NE,45,2.2,5.1,63,0.00,,,0.00,WUHU216HW,2013-01-21 21:03:00,
2013-01-21 14:05:00,29.5,18.1,29.93,ESE,113,2.5,2.5,62,0.00,,,0.00,WUHU216HW,2013-01-21 21:05:00,
2013-01-21 14:06:00,29.5,18.1,29.93,East,90,1.6,2.5,62,0.00,,,0.00,WUHU216HW,2013-01-21 21:06:00,
2013-01-21 14:08:00,29.9,18.4,29.93,South,180,1.8,2.5,62,0.00,,,0.00,WUHU216HW,2013-01-21 21:08:00,
2013-01-21 14:10:00,29.9,18.7,29.93,NE,45,0.4,2.5,63,0.00,,,0.00,WUHU216HW,2013-01-21 21:10:00,
2013-01-21 14:11:00,30.1,18.9,29.93,NE,45,0.2,2.5,63,0.00,,,0.00,WUHU216HW,2013-01-21 21:11:00,
2013-01-21 14:13:00,30.2,19.1,29.93,ESE,113,3.4,3.4,63,0.00,,,0.00,WUHU216HW,2013-01-21 21:13:00,
2013-01-21 14:15:00,30.4,18.9,29.93,ESE,113,1.1,3.4,62,0.00,,,0.00,WUHU216HW,2013-01-21 21:15:00,
2013-01-21 14:16:00,30.4,18.9,29.93,East,90,0.9,3.4,62,0.00,,,0.00,WUHU216HW,2013-01-21 21:16:00,
2013-01-21 14:18:00,30.6,19.1,29.93,East,90,1.1,3.4,62,0.00,,,0.00,WUHU216HW,2013-01-21 21:18:00,
2013-01-21 14:20:00,30.8,19.3,29.93,East,90,1.3,3.4,62,0.00,,,0.00,WUHU216HW,2013-01-21 21:20:00,
2013-01-21 14:21:00,30.8,19.3,29.93,SE,135,0.9,3.4,62,0.00,,,0.00,WUHU216HW,2013-01-21 21:21:00,
2013-01-21 14:23:00,30.8,19.3,29.93,East,90,1.1,3.1,62,0.00,,,0.00,WUHU216HW,2013-01-21 21:23:00,
2013-01-21 14:25:00,31.0,19.4,29.93,East,90,2.5,3.1,62,0.00,,,0.00,WUHU216HW,2013-01-21 21:25:00,
2013-01-21 14:26:00,31.0,19.4,29.93,East,90,0.9,3.1,62,0.00,,,0.00,WUHU216HW,2013-01-21 21:26:00,
2013-01-21 14:28:00,31.0,19.4,29.93,ENE,68,0.4,3.1,62,0.00,,,0.00,WUHU216HW,2013-01-21 21:28:00,
2013-01-21 14:30:00,31.0,19.4,29.93,NE,45,2.5,3.1,62,0.00,,,0.00,WUHU216HW,2013-01-21 21:30:00,
2013-01-21 14:31:00,31.1,19.6,29.93,NE,45,1.1,3.1,62,0.00,,,0.00,WUHU216HW,2013-01-21 21:31:00,
2013-01-21 14:33:00,31.1,19.3,29.93,NNE,23,3.4,3.4,61,0.00,,,0.00,WUHU216HW,2013-01-21 21:33:00,
2013-01-21 14:35:00,31.1,19.3,29.93,North,0,2.0,3.4,61,0.00,,,0.00,WUHU216HW,2013-01-21 21:35:00,
2013-01-21 14:36:00,31.1,19.3,29.93,North,0,2.0,3.4,61,0.00,,,0.00,WUHU216HW,2013-01-21 21:36:00,
2013-01-21 14:38:00,31.3,19.4,29.93,NE,45,2.5,3.4,61,0.00,,,0.00,WUHU216HW,2013-01-21 21:38:00,
2013-01-21 14:40:00,31.3,19.4,29.93,East,90,1.8,3.4,61,0.00,,,0.00,WUHU216HW,2013-01-21 21:40:00,
2013-01-21 14:41:00,31.3,19.4,29.93,East,90,1.8,3.4,61,0.00,,,0.00,WUHU216HW,2013-01-21 21:41:00,
2013-01-21 14:43:00,31.3,19.1,29.93,ENE,68,4.3,4.3,60,0.00,,,0.00,WUHU216HW,2013-01-21 21:43:00,
2013-01-21 14:46:00,31.5,19.3,29.93,East,90,1.1,4.3,60,0.00,,,0.00,WUHU216HW,2013-01-21 21:46:00,
2013-01-21 14:48:00,31.3,19.1,29.93,NE,45,2.5,4.3,60,0.00,,,0.00,WUHU216HW,2013-01-21 21:48:00,
2013-01-21 14:51:00,31.3,19.1,29.93,NE,45,4.7,4.7,60,0.00,,,0.00,WUHU216HW,2013-01-21 21:51:00,
2013-01-21 14:53:00,31.3,18.6,29.93,NNE,23,2.2,4.7,59,0.00,,,0.00,WUHU216HW,2013-01-21 21:53:00,
2013-01-21 14:56:00,31.3,18.6,29.93,NE,45,5.1,5.1,59,0.00,,,0.00,WUHU216HW,2013-01-21 21:56:00,
2013-01-21 14:58:00,31.3,18.6,29.93,NNE,23,2.9,5.1,59,0.00,,,0.00,WUHU216HW,2013-01-21 21:58:00,
2013-01-21 15:01:00,31.3,19.1,29.93,NNE,23,4.5,5.1,60,0.00,,,0.00,WUHU216HW,2013-01-21 22:01:00,
2013-01-21 15:03:00,31.3,19.1,29.93,ENE,68,2.5,5.1,60,0.00,,,0.00,WUHU216HW,2013-01-21 22:03:00,
2013-01-21 15:06:00,31.3,19.1,29.93,NNE,23,2.9,5.4,60,0.00,,,0.00,WUHU216HW,2013-01-21 22:06:00,
2013-01-21 15:07:00,31.3,19.1,29.93,NNE,23,2.9,5.4,60,0.00,,,0.00,WUHU216HW,2013-01-21 22:07:00,
2013-01-21 15:09:00,31.3,18.6,29.93,NNE,23,1.8,5.4,59,0.00,,,0.00,WUHU216HW,2013-01-21 22:09:00,
2013-01-21 15:11:00,31.3,18.6,29.93,East,90,2.2,5.4,59,0.00,,,0.00,WUHU216HW,2013-01-21 22:11:00,
2013-01-21 15:12:00,31.3,18.6,29.93,East,90,2.2,5.4,59,0.00,,,0.00,WUHU216HW,2013-01-21 22:12:00,
2013-01-21 15:13:00,31.3,18.6,29.93,NE,45,6.0,6.0,59,0.00,,,0.00,WUHU216HW,2013-01-21 22:13:00,
2013-01-21 15:14:00,31.1,18.5,29.93,ESE,113,2.2,6.0,59,0.00,,,0.00,WUHU216HW,2013-01-21 22:14:00,
2013-01-21 15:16:00,31.3,18.6,29.93,NE,45,4.0,6.0,59,0.00,,,0.00,WUHU216HW,2013-01-21 22:16:00,
2013-01-21 15:17:00,31.3,18.6,29.93,NE,45,4.0,6.0,59,0.00,,,0.00,WUHU216HW,2013-01-21 22:17:00,
2013-01-21 15:18:00,31.3,18.6,29.93,NE,45,4.7,6.0,59,0.00,,,0.00,WUHU216HW,2013-01-21 22:18:00,
2013-01-21 15:19:00,31.3,18.6,29.93,NNE,23,2.5,6.0,59,0.00,,,0.00,WUHU216HW,2013-01-21 22:19:00,
2013-01-21 15:21:00,31.3,18.6,29.93,NE,45,4.0,6.0,59,0.00,,,0.00,WUHU216HW,2013-01-21 22:21:00,
2013-01-21 15:22:00,31.3,18.6,29.93,NE,45,4.0,4.7,59,0.00,,,0.00,WUHU216HW,2013-01-21 22:22:00,
2013-01-21 15:23:00,31.3,18.6,29.93,NNE,23,1.8,4.7,59,0.00,,,0.00,WUHU216HW,2013-01-21 22:23:00,
2013-01-21 15:24:00,31.3,18.6,29.93,NE,45,2.0,4.7,59,0.00,,,0.00,WUHU216HW,2013-01-21 22:24:00,
2013-01-21 15:26:00,31.3,18.6,29.93,East,90,2.5,5.1,59,0.00,,,0.00,WUHU216HW,2013-01-21 22:26:00,
2013-01-21 15:27:00,31.3,18.6,29.93,East,90,2.5,5.1,59,0.00,,,0.00,WUHU216HW,2013-01-21 22:27:00,
2013-01-21 15:28:00,31.3,18.6,29.93,NE,45,4.0,5.1,59,0.00,,,0.00,WUHU216HW,2013-01-21 22:28:00,
2013-01-21 15:29:00,31.3,18.6,29.93,NE,45,1.1,5.1,59,0.00,,,0.00,WUHU216HW,2013-01-21 22:29:00,
2013-01-21 15:31:00,31.3,18.6,29.92,NE,45,2.5,5.1,59,0.00,,,0.00,WUHU216HW,2013-01-21 22:31:00,
2013-01-21 15:32:00,31.3,18.6,29.92,NE,45,2.5,5.1,59,0.00,,,0.00,WUHU216HW,2013-01-21 22:32:00,
2013-01-21 15:33:00,31.3,18.6,29.92,East,90,4.0,5.1,59,0.00,,,0.00,WUHU216HW,2013-01-21 22:33:00,
2013-01-21 15:34:00,31.1,18.5,29.92,ENE,68,1.8,4.0,59,0.00,,,0.00,WUHU216HW,2013-01-21 22:34:00,
2013-01-21 15:36:00,31.1,18.5,29.92,NNE,23,1.6,4.0,59,0.00,,,0.00,WUHU216HW,2013-01-21 22:36:00,
2013-01-21 15:37:00,31.1,18.5,29.92,NNE,23,1.6,4.0,59,0.00,,,0.00,WUHU216HW,2013-01-21 22:37:00,
2013-01-21 15:38:00,31.1,18.5,29.92,NNE,23,0.4,4.0,59,0.00,,,0.00,WUHU216HW,2013-01-21 22:38:00,
2013-01-21 15:39:00,31.1,18.5,29.92,NE,45,1.3,4.0,59,0.00,,,0.00,WUHU216HW,2013-01-21 22:39:00,
2013-01-21 15:41:00,31.1,18.5,29.92,NE,45,2.5,4.0,59,0.00,,,0.00,WUHU216HW,2013-01-21 22:41:00,
2013-01-21 15:42:00,31.1,18.5,29.92,NE,45,2.5,4.0,59,0.00,,,0.00,WUHU216HW,2013-01-21 22:42:00,
2013-01-21 15:43:00,31.1,18.5,29.92,East,90,2.7,2.7,59,0.00,,,0.00,WUHU216HW,2013-01-21 22:43:00,
2013-01-21 15:45:00,31.0,18.7,29.92,ENE,68,2.7,2.7,60,0.00,,,0.00,WUHU216HW,2013-01-21 22:45:00,
2013-01-21 15:47:00,31.0,18.7,29.92,NE,45,2.9,2.9,60,0.00,,,0.00,WUHU216HW,2013-01-21 22:47:00,
2013-01-21 15:48:00,31.0,18.7,29.91,East,90,2.5,2.9,60,0.00,,,0.00,WUHU216HW,2013-01-21 22:48:00,
2013-01-21 15:50:00,31.0,18.7,29.92,NE,45,1.8,2.9,60,0.00,,,0.00,WUHU216HW,2013-01-21 22:50:00,
2013-01-21 15:52:00,31.0,18.7,29.92,NNE,23,1.1,2.9,60,0.00,,,0.00,WUHU216HW,2013-01-21 22:52:00,
2013-01-21 15:53:00,31.1,18.9,29.92,NE,45,1.6,2.9,60,0.00,,,0.00,WUHU216HW,2013-01-21 22:53:00,
2013-01-21 15:55:00,31.1,18.9,29.92,ENE,68,2.5,2.9,60,0.00,,,0.00,WUHU216HW,2013-01-21 22:55:00,
2013-01-21 15:57:00,31.1,18.9,29.92,NE,45,2.5,2.5,60,0.00,,,0.00,WUHU216HW,2013-01-21 22:57:00,
2013-01-21 15:58:00,31.1,18.9,29.92,NE,45,2.0,2.5,60,0.00,,,0.00,WUHU216HW,2013-01-21 22:58:00,
2013-01-21 16:00:00,31.1,18.9,29.92,North,0,3.4,3.4,60,0.00,,,0.00,WUHU216HW,2013-01-21 23:00:00,
2013-01-21 16:02:00,31.0,18.7,29.92,NNE,23,5.1,5.1,60,0.00,,,0.00,WUHU216HW,2013-01-21 23:02:00,
2013-01-21 16:03:00,31.0,18.7,29.92,ENE,68,1.6,5.1,60,0.00,,,0.00,WUHU216HW,2013-01-21 23:03:00,
2013-01-21 16:06:00,31.0,18.7,29.92,North,0,1.3,5.1,60,0.00,,,0.00,WUHU216HW,2013-01-21 23:06:00,
2013-01-21 16:07:00,31.0,18.7,29.92,NE,45,0.7,5.1,60,0.00,,,0.00,WUHU216HW,2013-01-21 23:07:00,
2013-01-21 16:08:00,31.0,18.7,29.92,NE,45,0.7,5.1,60,0.00,,,0.00,WUHU216HW,2013-01-21 23:08:00,
2013-01-21 16:11:00,30.8,18.5,29.92,NE,45,0.9,5.1,60,0.00,,,0.00,WUHU216HW,2013-01-21 23:11:00,
2013-01-21 16:12:00,30.8,18.5,29.92,ENE,68,0.7,2.9,60,0.00,,,0.00,WUHU216HW,2013-01-21 23:12:00,
2013-01-21 16:13:00,30.8,18.5,29.92,NNE,23,0.9,2.9,60,0.00,,,0.00,WUHU216HW,2013-01-21 23:13:00,
2013-01-21 16:16:00,30.6,18.4,29.91,NNE,23,0.9,2.7,60,0.00,,,0.00,WUHU216HW,2013-01-21 23:16:00,
2013-01-21 16:17:00,30.6,18.4,29.91,NNE,23,0.9,2.7,60,0.00,,,0.00,WUHU216HW,2013-01-21 23:17:00,
2013-01-21 16:18:00,30.6,18.4,29.91,NE,45,2.5,3.1,60,0.00,,,0.00,WUHU216HW,2013-01-21 23:18:00,
2013-01-21 16:21:00,30.6,18.4,29.91,NE,45,2.7,3.6,60,0.00,,,0.00,WUHU216HW,2013-01-21 23:21:00,
2013-01-21 16:22:00,30.4,18.2,29.91,NNE,23,1.6,3.6,60,0.00,,,0.00,WUHU216HW,2013-01-21 23:22:00,
2013-01-21 16:23:00,30.4,18.2,29.91,NNE,23,1.8,3.6,60,0.00,,,0.00,WUHU216HW,2013-01-21 23:23:00,
2013-01-21 16:26:00,30.2,18.4,29.91,NE,45,2.9,4.0,61,0.00,,,0.00,WUHU216HW,2013-01-21 23:26:00,
2013-01-21 16:27:00,30.2,18.4,29.91,ENE,68,1.1,4.0,61,0.00,,,0.00,WUHU216HW,2013-01-21 23:27:00,
2013-01-21 16:28:00,30.1,18.2,29.91,East,90,1.8,4.0,61,0.00,,,0.00,WUHU216HW,2013-01-21 23:28:00,
2013-01-21 16:31:00,29.9,18.0,29.91,ENE,68,1.8,4.0,61,0.00,,,0.00,WUHU216HW,2013-01-21 23:31:00,
2013-01-21 16:32:00,29.9,18.0,29.91,NE,45,0.4,4.0,61,0.00,,,0.00,WUHU216HW,2013-01-21 23:32:00,
2013-01-21 16:33:00,29.9,18.0,29.91,NE,45,0.9,4.0,61,0.00,,,0.00,WUHU216HW,2013-01-21 23:33:00,
2013-01-21 16:36:00,29.9,18.0,29.91,NNE,23,1.1,2.0,61,0.00,,,0.00,WUHU216HW,2013-01-21 23:36:00,
2013-01-21 16:37:00,29.9,18.0,29.91,ENE,68,1.8,2.0,61,0.00,,,0.00,WUHU216HW,2013-01-21 23:37:00,
2013-01-21 16:38:00,29.9,18.0,29.91,NNE,23,1.1,2.0,61,0.00,,,0.00,WUHU216HW,2013-01-21 23:38:00,
2013-01-21 16:39:00,29.9,18.0,29.91,NNE,23,1.1,2.0,61,0.00,,,0.00,WUHU216HW,2013-01-21 23:39:00,
2013-01-21 16:41:00,29.7,18.3,29.91,NE,45,1.1,2.0,62,0.00,,,0.00,WUHU216HW,2013-01-21 23:41:00,
2013-01-21 16:42:00,29.7,18.3,29.91,NE,45,1.8,2.0,62,0.00,,,0.00,WUHU216HW,2013-01-21 23:42:00,
2013-01-21 16:43:00,29.7,18.3,29.91,ENE,68,3.1,3.1,62,0.00,,,0.00,WUHU216HW,2013-01-21 23:43:00,
2013-01-21 16:44:00,29.7,18.3,29.91,ENE,68,3.1,3.1,62,0.00,,,0.00,WUHU216HW,2013-01-21 23:44:00,
2013-01-21 16:46:00,29.5,18.1,29.91,ENE,68,0.4,3.1,62,0.00,,,0.00,WUHU216HW,2013-01-21 23:46:00,
2013-01-21 16:48:00,29.3,17.9,29.91,NE,45,0.4,3.1,62,0.00,,,0.00,WUHU216HW,2013-01-21 23:48:00,
2013-01-21 16:49:00,29.3,17.9,29.91,North,0,0.9,3.1,62,0.00,,,0.00,WUHU216HW,2013-01-21 23:49:00,
2013-01-21 16:51:00,29.2,17.7,29.91,NE,45,0.4,3.1,62,0.00,,,0.00,WUHU216HW,2013-01-21 23:51:00,
2013-01-21 16:53:00,29.2,17.7,29.90,ENE,68,0.4,0.9,62,0.00,,,0.00,WUHU216HW,2013-01-21 23:53:00,
2013-01-21 16:54:00,29.2,17.7,29.91,ENE,68,1.1,1.1,62,0.00,,,0.00,WUHU216HW,2013-01-21 23:54:00,
2013-01-21 16:56:00,29.0,17.6,29.91,NE,45,0.0,1.1,62,0.00,,,0.00,WUHU216HW,2013-01-21 23:56:00,
2013-01-21 16:58:00,29.0,17.6,29.91,NNE,23,0.9,1.1,62,0.00,,,0.00,WUHU216HW,2013-01-21 23:58:00,
2013-01-21 16:59:00,29.0,17.6,29.91,NNE,23,1.1,1.1,62,0.00,,,0.00,WUHU216HW,2013-01-21 23:59:00,
2013-01-21 17:01:00,28.8,17.5,29.91,NE,45,0.4,2.0,62,0.00,,,0.00,WUHU216HW,2013-01-22 00:01:00,
2013-01-21 17:03:00,28.6,17.3,29.91,NE,45,0.4,2.0,62,0.00,,,0.00,WUHU216HW,2013-01-22 00:03:00,
2013-01-21 17:04:00,28.6,17.3,29.91,ENE,68,1.8,2.0,62,0.00,,,0.00,WUHU216HW,2013-01-22 00:04:00,
2013-01-21 17:07:00,28.4,17.1,29.91,NE,45,2.0,2.0,62,0.00,,,0.00,WUHU216HW,2013-01-22 00:07:00,
2013-01-21 17:08:00,28.4,17.1,29.91,ENE,68,3.4,3.4,62,0.00,,,0.00,WUHU216HW,2013-01-22 00:08:00,
2013-01-21 17:09:00,28.4,17.1,29.91,ENE,68,2.5,3.4,62,0.00,,,0.00,WUHU216HW,2013-01-22 00:09:00,
2013-01-21 17:12:00,28.3,16.9,29.91,ENE,68,1.1,3.4,62,0.00,,,0.00,WUHU216HW,2013-01-22 00:12:00,
2013-01-21 17:13:00,28.3,16.9,29.91,ENE,68,1.1,3.4,62,0.00,,,0.00,WUHU216HW,2013-01-22 00:13:00,
2013-01-21 17:14:00,28.1,16.7,29.91,NE,45,2.2,3.4,62,0.00,,,0.00,WUHU216HW,2013-01-22 00:14:00,
2013-01-21 17:17:00,28.1,16.7,29.91,ENE,68,0.9,3.4,62,0.00,,,0.00,WUHU216HW,2013-01-22 00:17:00,
2013-01-21 17:18:00,27.9,16.6,29.91,NNE,23,2.2,2.5,62,0.00,,,0.00,WUHU216HW,2013-01-22 00:18:00,
2013-01-21 17:19:00,27.7,16.4,29.91,NE,45,2.9,2.9,62,0.00,,,0.00,WUHU216HW,2013-01-22 00:19:00,
2013-01-21 17:22:00,27.7,16.4,29.91,NE,45,1.3,4.0,62,0.00,,,0.00,WUHU216HW,2013-01-22 00:22:00,
2013-01-21 17:23:00,27.5,16.2,29.91,ENE,68,3.1,4.0,62,0.00,,,0.00,WUHU216HW,2013-01-22 00:23:00,
2013-01-21 17:24:00,27.5,16.6,29.91,ENE,68,1.1,4.0,63,0.00,,,0.00,WUHU216HW,2013-01-22 00:24:00,
2013-01-21 17:27:00,27.4,16.4,29.91,ENE,68,2.5,4.0,63,0.00,,,0.00,WUHU216HW,2013-01-22 00:27:00,
2013-01-21 17:28:00,27.2,16.2,29.91,NNE,23,1.1,4.0,63,0.00,,,0.00,WUHU216HW,2013-01-22 00:28:00,
2013-01-21 17:30:00,27.0,16.0,29.91,NE,45,1.1,4.0,63,0.00,,,0.00,WUHU216HW,2013-01-22 00:30:00,
2013-01-21 17:32:00,27.0,16.0,29.91,NNE,23,1.3,3.1,63,0.00,,,0.00,WUHU216HW,2013-01-22 00:32:00,
2013-01-21 17:33:00,26.8,15.8,29.90,ENE,68,0.9,2.5,63,0.00,,,0.00,WUHU216HW,2013-01-22 00:33:00,
2013-01-21 17:35:00,26.8,16.2,29.90,NE,45,1.8,2.5,64,0.00,,,0.00,WUHU216HW,2013-01-22 00:35:00,
2013-01-21 17:37:00,26.6,16.0,29.90,NE,45,0.0,1.8,64,0.00,,,0.00,WUHU216HW,2013-01-22 00:37:00,
2013-01-21 17:38:00,26.6,16.0,29.90,NE,45,0.0,1.8,64,0.00,,,0.00,WUHU216HW,2013-01-22 00:38:00,
2013-01-21 17:40:00,26.6,16.0,29.90,NE,45,0.0,1.8,64,0.00,,,0.00,WUHU216HW,2013-01-22 00:40:00,
2013-01-21 17:43:00,26.3,15.7,29.91,NNE,23,1.3,1.8,64,0.00,,,0.00,WUHU216HW,2013-01-22 00:43:00,
2013-01-21 17:44:00,26.3,15.7,29.91,NNE,23,1.3,1.8,64,0.00,,,0.00,WUHU216HW,2013-01-22 00:44:00,
2013-01-21 17:45:00,26.3,15.7,29.91,ENE,68,0.2,1.3,64,0.00,,,0.00,WUHU216HW,2013-01-22 00:45:00,
2013-01-21 17:48:00,26.1,15.8,29.90,ENE,68,1.8,1.8,65,0.00,,,0.00,WUHU216HW,2013-01-22 00:48:00,
2013-01-21 17:49:00,26.1,15.8,29.90,ENE,68,1.8,1.8,65,0.00,,,0.00,WUHU216HW,2013-01-22 00:49:00,
2013-01-21 17:50:00,26.1,15.8,29.91,ENE,68,1.1,1.8,65,0.00,,,0.00,WUHU216HW,2013-01-22 00:50:00,
2013-01-21 17:53:00,25.9,15.7,29.90,ENE,68,0.4,1.8,65,0.00,,,0.00,WUHU216HW,2013-01-22 00:53:00,
2013-01-21 17:54:00,25.9,15.7,29.90,ENE,68,0.4,1.8,65,0.00,,,0.00,WUHU216HW,2013-01-22 00:54:00,
2013-01-21 17:55:00,25.9,15.7,29.90,ENE,68,0.0,1.8,65,0.00,,,0.00,WUHU216HW,2013-01-22 00:55:00,
2013-01-21 17:58:00,25.7,15.6,29.90,East,90,0.2,1.1,65,0.00,,,0.00,WUHU216HW,2013-01-22 00:58:00,
2013-01-21 18:00:00,25.7,15.6,29.90,ENE,68,0.0,1.1,65,0.00,,,0.00,WUHU216HW,2013-01-22 01:00:00,
2013-01-21 18:01:00,25.7,15.6,29.90,ENE,68,0.0,1.1,65,0.00,,,0.00,WUHU216HW,2013-01-22 01:01:00,
2013-01-21 18:04:00,25.6,15.4,29.90,NNE,23,0.2,0.4,65,0.00,,,0.00,WUHU216HW,2013-01-22 01:04:00,
2013-01-21 18:05:00,25.6,15.4,29.90,NNE,23,0.4,0.4,65,0.00,,,0.00,WUHU216HW,2013-01-22 01:05:00,
2013-01-21 18:06:00,25.6,15.4,29.90,NNE,23,0.2,0.4,65,0.00,,,0.00,WUHU216HW,2013-01-22 01:06:00,
2013-01-21 18:09:00,25.4,15.2,29.91,NNE,23,0.0,0.4,65,0.00,,,0.00,WUHU216HW,2013-01-22 01:09:00,
2013-01-21 18:10:00,25.2,15.0,29.90,ENE,68,0.2,0.4,65,0.00,,,0.00,WUHU216HW,2013-01-22 01:10:00,
2013-01-21 18:11:00,25.2,15.0,29.90,ENE,68,0.0,0.4,65,0.00,,,0.00,WUHU216HW,2013-01-22 01:11:00,
2013-01-21 18:14:00,25.2,15.0,29.91,NNE,23,0.0,0.7,65,0.00,,,0.00,WUHU216HW,2013-01-22 01:14:00,
2013-01-21 18:15:00,25.2,15.0,29.91,North,0,0.2,0.7,65,0.00,,,0.00,WUHU216HW,2013-01-22 01:15:00,
2013-01-21 18:16:00,25.0,14.9,29.91,NNW,338,0.0,0.7,65,0.00,,,0.00,WUHU216HW,2013-01-22 01:16:00,
2013-01-21 18:19:00,25.0,15.2,29.91,WSW,248,0.0,0.7,66,0.00,,,0.00,WUHU216HW,2013-01-22 01:19:00,
2013-01-21 18:21:00,25.0,15.2,29.91,WSW,248,0.2,0.7,66,0.00,,,0.00,WUHU216HW,2013-01-22 01:21:00,
2013-01-21 18:24:00,24.8,15.0,29.90,NW,315,0.0,0.4,66,0.00,,,0.00,WUHU216HW,2013-01-22 01:24:00,
2013-01-21 18:26:00,24.8,15.0,29.90,NW,315,0.0,0.4,66,0.00,,,0.00,WUHU216HW,2013-01-22 01:26:00,
2013-01-21 18:30:00,24.8,15.0,29.90,NW,315,0.0,0.2,66,0.00,,,0.00,WUHU216HW,2013-01-22 01:30:00,
2013-01-21 18:31:00,24.8,15.0,29.90,East,90,0.2,0.2,66,0.00,,,0.00,WUHU216HW,2013-01-22 01:31:00,
2013-01-21 18:32:00,24.8,15.0,29.90,East,90,0.2,0.2,66,0.00,,,0.00,WUHU216HW,2013-01-22 01:32:00,
2013-01-21 18:35:00,24.7,14.9,29.90,ENE,68,0.4,0.4,66,0.00,,,0.00,WUHU216HW,2013-01-22 01:35:00,
2013-01-21 18:36:00,24.7,14.9,29.90,ENE,68,0.4,0.4,66,0.00,,,0.00,WUHU216HW,2013-01-22 01:36:00,
2013-01-21 18:37:00,24.5,14.7,29.90,NE,45,0.4,0.4,66,0.00,,,0.00,WUHU216HW,2013-01-22 01:37:00,
2013-01-21 18:40:00,24.3,14.5,29.90,ENE,68,0.4,0.7,66,0.00,,,0.00,WUHU216HW,2013-01-22 01:40:00,
2013-01-21 18:41:00,24.3,14.5,29.90,ENE,68,0.4,0.7,66,0.00,,,0.00,WUHU216HW,2013-01-22 01:41:00,
2013-01-21 18:42:00,24.3,14.5,29.90,ENE,68,0.7,0.7,66,0.00,,,0.00,WUHU216HW,2013-01-22 01:42:00,
2013-01-21 18:45:00,24.1,14.7,29.90,NE,45,0.0,1.1,67,0.00,,,0.00,WUHU216HW,2013-01-22 01:45:00,
2013-01-21 18:46:00,24.1,14.7,29.90,NE,45,0.0,1.1,67,0.00,,,0.00,WUHU216HW,2013-01-22 01:46:00,
2013-01-21 18:47:00,23.9,14.5,29.90,NE,45,0.0,1.1,67,0.00,,,0.00,WUHU216HW,2013-01-22 01:47:00,
2013-01-21 18:51:00,23.8,14.3,29.90,NE,45,0.4,1.1,67,0.00,,,0.00,WUHU216HW,2013-01-22 01:51:00,
2013-01-21 18:52:00,23.8,14.3,29.90,East,90,0.4,1.1,67,0.00,,,0.00,WUHU216HW,2013-01-22 01:52:00,
2013-01-21 18:56:00,23.6,14.2,29.90,NNE,23,0.0,0.7,67,0.00,,,0.00,WUHU216HW,2013-01-22 01:56:00,
2013-01-21 18:57:00,23.6,14.2,29.90,NNE,23,0.7,0.7,67,0.00,,,0.00,WUHU216HW,2013-01-22 01:57:00,
2013-01-21 18:58:00,23.4,14.1,29.90,NNE,23,0.2,0.7,67,0.00,,,0.00,WUHU216HW,2013-01-22 01:58:00,
2013-01-21 19:01:00,23.4,14.4,29.90,NNE,23,0.0,0.7,68,0.00,,,0.00,WUHU216HW,2013-01-22 02:01:00,
2013-01-21 19:02:00,23.4,14.4,29.90,NNE,23,0.0,0.7,68,0.00,,,0.00,WUHU216HW,2013-01-22 02:02:00,
2013-01-21 19:03:00,23.2,14.2,29.90,NNE,23,0.0,0.7,68,0.00,,,0.00,WUHU216HW,2013-01-22 02:03:00,
2013-01-21 19:06:00,23.0,14.0,29.90,WNW,293,0.0,0.7,68,0.00,,,0.00,WUHU216HW,2013-01-22 02:06:00,
2013-01-21 19:07:00,23.0,14.0,29.90,West,270,0.0,0.4,68,0.00,,,0.00,WUHU216HW,2013-01-22 02:07:00,
2013-01-21 19:08:00,23.0,14.0,29.90,NE,45,0.4,0.4,68,0.00,,,0.00,WUHU216HW,2013-01-22 02:08:00,
2013-01-21 19:11:00,22.9,13.9,29.90,NE,45,0.2,0.4,68,0.00,,,0.00,WUHU216HW,2013-01-22 02:11:00,
2013-01-21 19:12:00,22.9,13.9,29.90,NE,45,0.2,0.4,68,0.00,,,0.00,WUHU216HW,2013-01-22 02:12:00,
2013-01-21 19:14:00,22.7,13.7,29.90,NNE,23,0.4,0.4,68,0.00,,,0.00,WUHU216HW,2013-01-22 02:14:00,
2013-01-21 19:16:00,22.7,14.0,29.91,NE,45,0.0,0.4,69,0.00,,,0.00,WUHU216HW,2013-01-22 02:16:00,
2013-01-21 19:17:00,22.5,13.9,29.91,NE,45,0.0,0.4,69,0.00,,,0.00,WUHU216HW,2013-01-22 02:17:00,
2013-01-21 19:19:00,22.5,13.9,29.91,NE,45,0.2,0.4,69,0.00,,,0.00,WUHU216HW,2013-01-22 02:19:00,
2013-01-21 19:21:00,22.3,13.7,29.91,NE,45,0.2,0.4,69,0.00,,,0.00,WUHU216HW,2013-01-22 02:21:00,
2013-01-21 19:22:00,22.3,13.7,29.91,NNE,23,0.7,0.7,69,0.00,,,0.00,WUHU216HW,2013-01-22 02:22:00,
2013-01-21 19:24:00,22.3,13.3,29.91,NE,45,1.1,1.1,68,0.00,,,0.00,WUHU216HW,2013-01-22 02:24:00,
2013-01-21 19:26:00,22.1,13.1,29.91,ENE,68,0.0,1.1,68,0.00,,,0.00,WUHU216HW,2013-01-22 02:26:00,
2013-01-21 19:27:00,22.0,13.0,29.91,ENE,68,0.0,1.1,68,0.00,,,0.00,WUHU216HW,2013-01-22 02:27:00,
2013-01-21 19:29:00,22.0,13.3,29.91,ENE,68,0.2,1.1,69,0.00,,,0.00,WUHU216HW,2013-01-22 02:29:00,
2013-01-21 19:31:00,22.0,13.3,29.91,ENE,68,0.0,1.1,69,0.00,,,0.00,WUHU216HW,2013-01-22 02:31:00,
2013-01-21 19:32:00,22.0,13.0,29.91,ENE,68,0.2,1.1,68,0.00,,,0.00,WUHU216HW,2013-01-22 02:32:00,
2013-01-21 19:33:00,22.0,13.0,29.91,ENE,68,0.2,1.1,68,0.00,,,0.00,WUHU216HW,2013-01-22 02:33:00,
2013-01-21 19:34:00,22.0,13.3,29.91,ENE,68,0.0,0.2,69,0.00,,,0.00,WUHU216HW,2013-01-22 02:34:00,
2013-01-21 19:36:00,22.0,13.3,29.91,ENE,68,0.0,0.2,69,0.00,,,0.00,WUHU216HW,2013-01-22 02:36:00,
2013-01-21 19:37:00,21.8,13.1,29.91,ENE,68,0.0,0.2,69,0.00,,,0.00,WUHU216HW,2013-01-22 02:37:00,
2013-01-21 19:38:00,21.8,13.1,29.91,ENE,68,0.0,0.2,69,0.00,,,0.00,WUHU216HW,2013-01-22 02:38:00,
2013-01-21 19:40:00,21.8,13.1,29.91,ENE,68,0.0,0.2,69,0.00,,,0.00,WUHU216HW,2013-01-22 02:40:00,
2013-01-21 19:41:00,21.8,13.1,29.92,NE,45,1.1,1.1,69,0.00,,,0.00,WUHU216HW,2013-01-22 02:41:00,
2013-01-21 19:42:00,21.8,13.1,29.92,ENE,68,0.4,1.1,69,0.00,,,0.00,WUHU216HW,2013-01-22 02:42:00,
2013-01-21 19:43:00,21.8,13.1,29.92,ENE,68,0.4,1.1,69,0.00,,,0.00,WUHU216HW,2013-01-22 02:43:00,
2013-01-21 19:45:00,21.6,13.0,29.92,ENE,68,0.0,1.1,69,0.00,,,0.00,WUHU216HW,2013-01-22 02:45:00,
2013-01-21 19:46:00,21.6,13.0,29.91,ENE,68,0.0,1.1,69,0.00,,,0.00,WUHU216HW,2013-01-22 02:46:00,
2013-01-21 19:47:00,21.6,13.0,29.91,ENE,68,0.0,1.1,69,0.00,,,0.00,WUHU216HW,2013-01-22 02:47:00,
2013-01-21 19:48:00,21.6,13.0,29.91,ENE,68,0.0,1.1,69,0.00,,,0.00,WUHU216HW,2013-01-22 02:48:00,
2013-01-21 19:50:00,21.6,13.0,29.92,East,90,0.0,1.1,69,0.00,,,0.00,WUHU216HW,2013-01-22 02:50:00,
2013-01-21 19:52:00,21.4,12.8,29.91,East,90,0.2,0.4,69,0.00,,,0.00,WUHU216HW,2013-01-22 02:52:00,
2013-01-21 19:53:00,21.4,12.8,29.92,East,90,0.0,0.2,69,0.00,,,0.00,WUHU216HW,2013-01-22 02:53:00,
2013-01-21 19:55:00,21.4,12.8,29.91,SW,225,0.7,1.1,69,0.00,,,0.00,WUHU216HW,2013-01-22 02:55:00,
2013-01-21 19:57:00,21.2,12.6,29.91,SW,225,0.7,1.1,69,0.00,,,0.00,WUHU216HW,2013-01-22 02:57:00,
2013-01-21 19:58:00,21.2,12.6,29.91,SW,225,0.4,1.1,69,0.00,,,0.00,WUHU216HW,2013-01-22 02:58:00,
2013-01-21 20:01:00,21.2,12.6,29.91,SW,225,0.2,1.1,69,0.00,,,0.00,WUHU216HW,2013-01-22 03:01:00,
2013-01-21 20:02:00,21.1,12.4,29.91,SW,225,0.4,1.1,69,0.00,,,0.00,WUHU216HW,2013-01-22 03:02:00,
2013-01-21 20:03:00,20.9,12.2,29.91,SW,225,0.0,1.1,69,0.00,,,0.00,WUHU216HW,2013-01-22 03:03:00,
2013-01-21 20:06:00,20.9,12.2,29.91,SW,225,0.4,0.7,69,0.00,,,0.00,WUHU216HW,2013-01-22 03:06:00,
2013-01-21 20:07:00,20.7,12.1,29.91,SW,225,0.7,0.7,69,0.00,,,0.00,WUHU216HW,2013-01-22 03:07:00,
2013-01-21 20:08:00,20.5,11.9,29.91,SW,225,0.7,0.7,69,0.00,,,0.00,WUHU216HW,2013-01-22 03:08:00,
2013-01-21 20:11:00,20.5,11.9,29.91,SSW,203,0.4,1.1,69,0.00,,,0.00,WUHU216HW,2013-01-22 03:11:00,
2013-01-21 20:12:00,20.5,11.9,29.91,SW,225,1.1,1.1,69,0.00,,,0.00,WUHU216HW,2013-01-22 03:12:00,
2013-01-21 20:13:00,20.3,11.7,29.91,SSW,203,0.4,1.1,69,0.00,,,0.00,WUHU216HW,2013-01-22 03:13:00,
2013-01-21 20:16:00,20.3,11.7,29.91,SSW,203,0.7,1.3,69,0.00,,,0.00,WUHU216HW,2013-01-22 03:16:00,
2013-01-21 20:17:00,20.2,11.5,29.91,SW,225,1.1,1.3,69,0.00,,,0.00,WUHU216HW,2013-01-22 03:17:00,
2013-01-21 20:19:00,20.2,11.5,29.91,SW,225,0.4,1.3,69,0.00,,,0.00,WUHU216HW,2013-01-22 03:19:00,
2013-01-21 20:21:00,19.8,11.2,29.91,SSW,203,0.7,1.3,69,0.00,,,0.00,WUHU216HW,2013-01-22 03:21:00,
2013-01-21 20:22:00,19.8,11.2,29.91,SSW,203,0.2,1.3,69,0.00,,,0.00,WUHU216HW,2013-01-22 03:22:00,
2013-01-21 20:23:00,19.8,11.2,29.91,SSW,203,0.2,1.3,69,0.00,,,0.00,WUHU216HW,2013-01-22 03:23:00,
2013-01-21 20:24:00,19.8,11.2,29.91,SW,225,0.7,1.3,69,0.00,,,0.00,WUHU216HW,2013-01-22 03:24:00,
2013-01-21 20:26:00,19.6,11.3,29.91,SW,225,1.1,1.1,70,0.00,,,0.00,WUHU216HW,2013-01-22 03:26:00,
2013-01-21 20:27:00,19.6,11.3,29.91,SSW,203,0.4,1.1,70,0.00,,,0.00,WUHU216HW,2013-01-22 03:27:00,
2013-01-21 20:28:00,19.6,11.3,29.91,SSW,203,0.4,1.1,70,0.00,,,0.00,WUHU216HW,2013-01-22 03:28:00,
2013-01-21 20:29:00,19.4,11.2,29.91,SSW,203,0.4,1.1,70,0.00,,,0.00,WUHU216HW,2013-01-22 03:29:00,
2013-01-21 20:31:00,19.3,11.0,29.91,SSW,203,0.4,1.1,70,0.00,,,0.00,WUHU216HW,2013-01-22 03:31:00,
2013-01-21 20:33:00,19.3,11.0,29.91,SW,225,0.7,1.1,70,0.00,,,0.00,WUHU216HW,2013-01-22 03:33:00,
2013-01-21 20:34:00,19.1,10.8,29.91,SW,225,1.1,1.1,70,0.00,,,0.00,WUHU216HW,2013-01-22 03:34:00,
2013-01-21 20:37:00,19.1,11.2,29.91,SW,225,0.2,1.1,71,0.00,,,0.00,WUHU216HW,2013-01-22 03:37:00,
2013-01-21 20:38:00,19.1,11.2,29.91,SW,225,0.0,1.1,71,0.00,,,0.00,WUHU216HW,2013-01-22 03:38:00,
2013-01-21 20:39:00,19.1,11.2,29.91,SW,225,0.0,1.1,71,0.00,,,0.00,WUHU216HW,2013-01-22 03:39:00,
2013-01-21 20:42:00,18.9,11.0,29.91,SW,225,0.0,1.1,71,0.00,,,0.00,WUHU216HW,2013-01-22 03:42:00,
2013-01-21 20:43:00,18.9,11.0,29.91,SW,225,0.0,1.1,71,0.00,,,0.00,WUHU216HW,2013-01-22 03:43:00,
2013-01-21 20:44:00,18.9,11.0,29.91,SW,225,0.0,0.9,71,0.00,,,0.00,WUHU216HW,2013-01-22 03:44:00,
2013-01-21 20:47:00,18.7,10.8,29.91,WSW,248,0.7,1.1,71,0.00,,,0.00,WUHU216HW,2013-01-22 03:47:00,
2013-01-21 20:48:00,18.7,10.8,29.91,WSW,248,0.7,1.1,71,0.00,,,0.00,WUHU216HW,2013-01-22 03:48:00,
2013-01-21 20:49:00,18.7,10.8,29.91,SSW,203,1.3,1.3,71,0.00,,,0.00,WUHU216HW,2013-01-22 03:49:00,
2013-01-21 20:52:00,18.5,10.6,29.91,SSW,203,1.8,1.8,71,0.00,,,0.00,WUHU216HW,2013-01-22 03:52:00,
2013-01-21 20:53:00,18.5,11.0,29.91,SW,225,0.4,1.8,72,0.00,,,0.00,WUHU216HW,2013-01-22 03:53:00,
2013-01-21 20:54:00,18.5,11.0,29.91,SW,225,0.4,1.8,72,0.00,,,0.00,WUHU216HW,2013-01-22 03:54:00,
2013-01-21 20:58:00,18.4,10.4,29.91,SW,225,1.6,1.8,71,0.00,,,0.00,WUHU216HW,2013-01-22 03:58:00,
2013-01-21 20:59:00,18.4,10.4,29.91,SW,225,1.6,1.8,71,0.00,,,0.00,WUHU216HW,2013-01-22 03:59:00,
2013-01-21 21:03:00,18.4,10.4,29.91,WSW,248,1.1,1.6,71,0.00,,,0.00,WUHU216HW,2013-01-22 04:03:00,
2013-01-21 21:04:00,18.4,10.4,29.91,WSW,248,0.4,1.6,71,0.00,,,0.00,WUHU216HW,2013-01-22 04:04:00,
2013-01-21 21:08:00,18.4,10.4,29.91,SW,225,0.4,1.6,71,0.00,,,0.00,WUHU216HW,2013-01-22 04:08:00,
2013-01-21 21:09:00,18.4,10.4,29.91,SW,225,0.9,1.1,71,0.00,,,0.00,WUHU216HW,2013-01-22 04:09:00,
2013-01-21 21:13:00,18.2,10.4,29.91,SSW,203,1.1,1.1,71,0.00,,,0.00,WUHU216HW,2013-01-22 04:13:00,
2013-01-21 21:14:00,18.0,10.2,29.91,SSW,203,1.6,1.6,71,0.00,,,0.00,WUHU216HW,2013-01-22 04:14:00,
2013-01-21 21:18:00,17.8,10.0,29.91,SSW,203,0.2,1.6,71,0.00,,,0.00,WUHU216HW,2013-01-22 04:18:00,
2013-01-21 21:19:00,17.8,10.0,29.91,SW,225,1.1,1.6,71,0.00,,,0.00,WUHU216HW,2013-01-22 04:19:00,
2013-01-21 21:23:00,17.6,10.1,29.91,SW,225,0.7,1.6,72,0.00,,,0.00,WUHU216HW,2013-01-22 04:23:00,
2013-01-21 21:24:00,17.6,10.1,29.91,SSW,203,0.7,1.6,72,0.00,,,0.00,WUHU216HW,2013-01-22 04:24:00,
2013-01-21 21:28:00,17.5,9.9,29.91,SSW,203,0.0,1.1,72,0.00,,,0.00,WUHU216HW,2013-01-22 04:28:00,
2013-01-21 21:29:00,17.5,9.9,29.91,SSW,203,0.0,1.1,72,0.00,,,0.00,WUHU216HW,2013-01-22 04:29:00,
2013-01-21 21:30:00,17.5,9.9,29.91,SSW,203,0.0,1.1,72,0.00,,,0.00,WUHU216HW,2013-01-22 04:30:00,
2013-01-21 21:33:00,17.3,9.7,29.91,SSW,203,0.7,0.7,72,0.00,,,0.00,WUHU216HW,2013-01-22 04:33:00,
2013-01-21 21:34:00,17.3,9.7,29.91,SW,225,0.4,0.7,72,0.00,,,0.00,WUHU216HW,2013-01-22 04:34:00,
2013-01-21 21:35:00,17.3,9.7,29.91,SW,225,0.4,0.7,72,0.00,,,0.00,WUHU216HW,2013-01-22 04:35:00,
2013-01-21 21:38:00,17.1,9.6,29.90,SW,225,0.2,1.1,72,0.00,,,0.00,WUHU216HW,2013-01-22 04:38:00,
2013-01-21 21:40:00,17.1,9.6,29.91,SW,225,0.0,1.1,72,0.00,,,0.00,WUHU216HW,2013-01-22 04:40:00,
2013-01-21 21:43:00,16.9,9.7,29.91,SW,225,0.4,1.1,73,0.00,,,0.00,WUHU216HW,2013-01-22 04:43:00,
2013-01-21 21:45:00,16.9,9.7,29.91,SW,225,0.7,1.1,73,0.00,,,0.00,WUHU216HW,2013-01-22 04:45:00,
2013-01-21 21:48:00,16.9,9.7,29.90,SSW,203,0.0,0.7,73,0.00,,,0.00,WUHU216HW,2013-01-22 04:48:00,
2013-01-21 21:50:00,16.9,9.7,29.91,SSW,203,0.4,0.7,73,0.00,,,0.00,WUHU216HW,2013-01-22 04:50:00,
2013-01-21 21:51:00,16.9,9.7,29.90,SSW,203,0.0,0.7,73,0.00,,,0.00,WUHU216HW,2013-01-22 04:51:00,
2013-01-21 21:53:00,16.9,9.7,29.91,SW,225,0.7,0.7,73,0.00,,,0.00,WUHU216HW,2013-01-22 04:53:00,
2013-01-21 21:55:00,16.7,9.6,29.90,SSW,203,1.1,1.1,73,0.00,,,0.00,WUHU216HW,2013-01-22 04:55:00,
2013-01-21 21:56:00,16.7,9.6,29.90,SSW,203,1.1,1.1,73,0.00,,,0.00,WUHU216HW,2013-01-22 04:56:00,
2013-01-21 21:58:00,16.7,9.6,29.90,SSW,203,0.0,1.1,73,0.00,,,0.00,WUHU216HW,2013-01-22 04:58:00,
2013-01-21 22:00:00,16.7,9.6,29.90,South,180,0.0,1.1,73,0.00,,,0.00,WUHU216HW,2013-01-22 05:00:00,
2013-01-21 22:01:00,16.7,9.6,29.90,South,180,0.0,1.1,73,0.00,,,0.00,WUHU216HW,2013-01-22 05:01:00,
2013-01-21 22:05:00,16.6,9.4,29.90,SSW,203,0.2,0.9,73,0.00,,,0.00,WUHU216HW,2013-01-22 05:05:00,
2013-01-21 22:06:00,16.6,9.6,29.90,SW,225,0.4,0.9,74,0.00,,,0.00,WUHU216HW,2013-01-22 05:06:00,
2013-01-21 22:11:00,16.6,9.6,29.90,SW,225,0.9,0.9,74,0.00,,,0.00,WUHU216HW,2013-01-22 05:11:00,
2013-01-21 22:16:00,16.6,9.6,29.90,SW,225,0.7,0.9,74,0.00,,,0.00,WUHU216HW,2013-01-22 05:16:00,
2013-01-21 22:21:00,16.6,9.6,29.90,SW,225,0.4,0.9,74,0.00,,,0.00,WUHU216HW,2013-01-22 05:21:00,
2013-01-21 22:26:00,16.6,9.6,29.90,SSW,203,0.0,0.4,74,0.00,,,0.00,WUHU216HW,2013-01-22 05:26:00,
2013-01-21 22:27:00,16.6,9.6,29.90,SSW,203,0.0,0.4,74,0.00,,,0.00,WUHU216HW,2013-01-22 05:27:00,
2013-01-21 22:31:00,16.2,9.3,29.91,SSW,203,0.0,0.4,74,0.00,,,0.00,WUHU216HW,2013-01-22 05:31:00,
2013-01-21 22:32:00,16.2,9.3,29.91,SSW,203,0.0,0.4,74,0.00,,,0.00,WUHU216HW,2013-01-22 05:32:00,
2013-01-21 22:36:00,16.2,9.3,29.90,SSW,203,0.0,0.0,74,0.00,,,0.00,WUHU216HW,2013-01-22 05:36:00,
2013-01-21 22:37:00,16.2,9.3,29.90,SSW,203,0.0,0.0,74,0.00,,,0.00,WUHU216HW,2013-01-22 05:37:00,
2013-01-21 22:41:00,16.0,9.2,29.90,SW,225,0.2,0.9,74,0.00,,,0.00,WUHU216HW,2013-01-22 05:41:00,
2013-01-21 22:42:00,16.0,9.2,29.90,SW,225,0.2,0.9,74,0.00,,,0.00,WUHU216HW,2013-01-22 05:42:00,
2013-01-21 22:47:00,16.0,9.2,29.90,SSW,203,0.0,0.9,74,0.00,,,0.00,WUHU216HW,2013-01-22 05:47:00,
2013-01-21 22:52:00,15.8,9.0,29.90,SW,225,0.4,0.7,74,0.00,,,0.00,WUHU216HW,2013-01-22 05:52:00,
2013-01-21 22:57:00,15.7,8.8,29.90,SW,225,0.7,1.1,74,0.00,,,0.00,WUHU216HW,2013-01-22 05:57:00,
2013-01-21 22:58:00,15.7,8.8,29.90,SW,225,0.0,1.1,74,0.00,,,0.00,WUHU216HW,2013-01-22 05:58:00,
2013-01-21 23:02:00,15.7,8.8,29.90,SW,225,1.1,1.1,74,0.00,,,0.00,WUHU216HW,2013-01-22 06:02:00,
2013-01-21 23:03:00,15.7,9.1,29.90,SW,225,0.4,1.1,75,0.00,,,0.00,WUHU216HW,2013-01-22 06:03:00,
2013-01-21 23:07:00,15.5,8.9,29.90,SSW,203,0.0,1.1,75,0.00,,,0.00,WUHU216HW,2013-01-22 06:07:00,
2013-01-21 23:08:00,15.5,8.9,29.90,SSW,203,0.0,1.1,75,0.00,,,0.00,WUHU216HW,2013-01-22 06:08:00,
2013-01-21 23:12:00,15.5,8.9,29.90,South,180,0.0,0.4,75,0.00,,,0.00,WUHU216HW,2013-01-22 06:12:00,
2013-01-21 23:13:00,15.5,8.9,29.90,South,180,0.0,0.4,75,0.00,,,0.00,WUHU216HW,2013-01-22 06:13:00,
2013-01-21 23:14:00,15.5,8.9,29.90,South,180,0.0,0.2,75,0.00,,,0.00,WUHU216HW,2013-01-22 06:14:00,
2013-01-21 23:17:00,15.3,8.7,29.90,South,180,0.0,0.2,75,0.00,,,0.00,WUHU216HW,2013-01-22 06:17:00,
2013-01-21 23:18:00,15.3,8.7,29.91,South,180,0.0,0.2,75,0.00,,,0.00,WUHU216HW,2013-01-22 06:18:00,
2013-01-21 23:19:00,15.3,8.7,29.91,South,180,0.0,0.2,75,0.00,,,0.00,WUHU216HW,2013-01-22 06:19:00,
2013-01-21 23:22:00,15.1,8.6,29.90,South,180,0.0,0.2,75,0.00,,,0.00,WUHU216HW,2013-01-22 06:22:00,
2013-01-21 23:23:00,15.1,8.6,29.90,South,180,0.0,0.2,75,0.00,,,0.00,WUHU216HW,2013-01-22 06:23:00,
2013-01-21 23:24:00,15.1,8.6,29.90,South,180,0.0,0.2,75,0.00,,,0.00,WUHU216HW,2013-01-22 06:24:00,
2013-01-21 23:28:00,15.1,8.9,29.91,SSE,158,0.0,0.0,76,0.00,,,0.00,WUHU216HW,2013-01-22 06:28:00,
2013-01-21 23:29:00,15.1,8.9,29.91,SSE,158,0.0,0.0,76,0.00,,,0.00,WUHU216HW,2013-01-22 06:29:00,
2013-01-21 23:33:00,14.9,8.7,29.91,SE,135,0.0,0.2,76,0.00,,,0.00,WUHU216HW,2013-01-22 06:33:00,
2013-01-21 23:34:00,14.9,8.7,29.91,SE,135,0.0,0.2,76,0.00,,,0.00,WUHU216HW,2013-01-22 06:34:00,
2013-01-21 23:38:00,14.9,8.7,29.91,SE,135,0.0,0.2,76,0.00,,,0.00,WUHU216HW,2013-01-22 06:38:00,
2013-01-21 23:39:00,14.9,8.7,29.91,SE,135,0.0,0.2,76,0.00,,,0.00,WUHU216HW,2013-01-22 06:39:00,
2013-01-21 23:43:00,14.9,8.7,29.91,SW,225,0.4,0.4,76,0.00,,,0.00,WUHU216HW,2013-01-22 06:43:00,
2013-01-21 23:44:00,14.9,8.7,29.91,SW,225,0.2,0.4,76,0.00,,,0.00,WUHU216HW,2013-01-22 06:44:00,
2013-01-21 23:45:00,14.9,8.7,29.91,SW,225,0.2,0.4,76,0.00,,,0.00,WUHU216HW,2013-01-22 06:45:00,
2013-01-21 23:48:00,14.8,8.6,29.91,SW,225,1.1,1.1,76,0.00,,,0.00,WUHU216HW,2013-01-22 06:48:00,
2013-01-21 23:49:00,14.8,8.6,29.91,SW,225,1.1,1.1,76,0.00,,,0.00,WUHU216HW,2013-01-22 06:49:00,
2013-01-21 23:50:00,14.8,8.6,29.90,SW,225,0.7,1.1,76,0.00,,,0.00,WUHU216HW,2013-01-22 06:50:00,
2013-01-21 23:53:00,14.8,8.6,29.90,SW,225,0.0,1.1,76,0.00,,,0.00,WUHU216HW,2013-01-22 06:53:00,
2013-01-21 23:54:00,14.6,8.4,29.90,SW,225,0.4,1.1,76,0.00,,,0.00,WUHU216HW,2013-01-22 06:54:00,
2013-01-21 23:55:00,14.6,8.4,29.90,SW,225,0.2,1.1,76,0.00,,,0.00,WUHU216HW,2013-01-22 06:55:00,
2013-01-21 23:58:00,14.6,8.4,29.91,SW,225,0.9,0.9,76,0.00,,,0.00,WUHU216HW,2013-01-22 06:58:00,
2013-01-21 23:59:00,14.6,8.4,29.90,SW,225,1.1,1.1,76,0.00,,,0.00,WUHU216HW,2013-01-22 06:59:00,